Wetterdaten: Samstag, 11.08.2018
Datum Zeit Temp. Aussen Temp. o. S. +5cm Feuchte Auss Luftdruck Regen Sonnenschein Regendauer Solar Windben Empfang
11.08.2018 00:00 18,8 C 17,8 C 17,8 C 57 % 1017,5 hPa 0,0 l/m 0 min 0 min 0 W/m 4,5 km/h (1 Bft) 97,87 %
11.08.2018 00:02 18,8 C 17,8 C 17,8 C 57 % 1017,5 hPa 0,0 l/m 0 min 0 min 0 W/m 4,5 km/h (1 Bft) 97,37 %
11.08.2018 00:04 18,8 C 17,8 C 17,8 C 58 % 1017,5 hPa 0,0 l/m 0 min 0 min 0 W/m 6,8 km/h (2 Bft) 100,00 %
11.08.2018 00:07 18,7 C 17,8 C 17,8 C 58 % 1017,5 hPa 0,0 l/m 0 min 0 min 0 W/m 6,8 km/h (2 Bft) 98,59 %
11.08.2018 00:08 18,7 C 17,8 C 17,8 C 58 % 1017,5 hPa 0,0 l/m 0 min 0 min 0 W/m 4,5 km/h (1 Bft) 100,00 %
11.08.2018 00:10 18,7 C 17,8 C 17,8 C 58 % 1017,5 hPa 0,0 l/m 0 min 0 min 0 W/m 11,3 km/h (2 Bft) 100,00 %
11.08.2018 00:12 18,7 C 17,8 C 17,8 C 58 % 1017,5 hPa 0,0 l/m 0 min 0 min 0 W/m 4,5 km/h (1 Bft) 100,00 %
11.08.2018 00:14 18,7 C 17,8 C 17,8 C 58 % 1017,5 hPa 0,0 l/m 0 min 0 min 0 W/m 6,8 km/h (2 Bft) 100,00 %
11.08.2018 00:16 18,7 C 17,2 C 17,8 C 58 % 1017,5 hPa 0,0 l/m 0 min 0 min 0 W/m 4,5 km/h (1 Bft) 97,87 %
11.08.2018 00:18 18,6 C 17,2 C 17,8 C 58 % 1017,4 hPa 0,0 l/m 0 min 0 min 0 W/m 6,8 km/h (2 Bft) 100,00 %
11.08.2018 00:20 18,6 C 17,2 C 17,8 C 58 % 1017,5 hPa 0,0 l/m 0 min 0 min 0 W/m 6,8 km/h (2 Bft) 100,00 %
11.08.2018 00:22 18,6 C 17,2 C 17,2 C 59 % 1017,5 hPa 0,0 l/m 0 min 0 min 0 W/m 6,8 km/h (2 Bft) 100,00 %
11.08.2018 00:24 18,6 C 17,2 C 17,2 C 59 % 1017,5 hPa 0,0 l/m 0 min 0 min 0 W/m 6,8 km/h (2 Bft) 100,00 %
11.08.2018 00:26 18,5 C 17,2 C 17,2 C 59 % 1017,5 hPa 0,0 l/m 0 min 0 min 0 W/m 4,5 km/h (1 Bft) 97,87 %
11.08.2018 00:28 18,5 C 17,2 C 17,2 C 59 % 1017,5 hPa 0,0 l/m 0 min 0 min 0 W/m 6,8 km/h (2 Bft) 100,00 %
11.08.2018 00:30 18,5 C 17,2 C 17,2 C 60 % 1017,5 hPa 0,0 l/m 0 min 0 min 0 W/m 6,8 km/h (2 Bft) 100,00 %
11.08.2018 00:32 18,4 C 17,2 C 17,2 C 60 % 1017,5 hPa 0,0 l/m 0 min 0 min 0 W/m 6,8 km/h (2 Bft) 100,00 %
11.08.2018 00:34 18,4 C 17,2 C 17,2 C 60 % 1017,5 hPa 0,0 l/m 0 min 0 min 0 W/m 4,5 km/h (1 Bft) 100,00 %
11.08.2018 00:36 18,4 C 17,2 C 17,2 C 60 % 1017,5 hPa 0,0 l/m 0 min 0 min 0 W/m 11,3 km/h (2 Bft) 100,00 %
11.08.2018 00:38 18,4 C 17,2 C 17,2 C 60 % 1017,5 hPa 0,0 l/m 0 min 0 min 0 W/m 9,0 km/h (2 Bft) 100,00 %
11.08.2018 00:40 18,4 C 17,2 C 17,2 C 60 % 1017,5 hPa 0,0 l/m 0 min 0 min 0 W/m 6,8 km/h (2 Bft) 100,00 %
11.08.2018 00:42 18,3 C 17,8 C 17,2 C 60 % 1017,5 hPa 0,0 l/m 0 min 0 min 0 W/m 6,8 km/h (2 Bft) 100,00 %
11.08.2018 00:44 18,3 C 17,8 C 17,2 C 60 % 1017,5 hPa 0,0 l/m 0 min 0 min 0 W/m 6,8 km/h (2 Bft) 97,87 %
11.08.2018 00:46 18,3 C 17,8 C 17,2 C 60 % 1017,5 hPa 0,0 l/m 0 min 0 min 0 W/m 4,5 km/h (1 Bft) 100,00 %
11.08.2018 00:48 18,3 C 17,8 C 17,2 C 61 % 1017,5 hPa 0,0 l/m 0 min 0 min 0 W/m 6,8 km/h (2 Bft) 100,00 %
11.08.2018 00:50 18,3 C 17,8 C 17,8 C 61 % 1017,5 hPa 0,0 l/m 0 min 0 min 0 W/m 9,0 km/h (2 Bft) 100,00 %
11.08.2018 00:52 18,3 C 17,8 C 17,2 C 61 % 1017,5 hPa 0,0 l/m 0 min 0 min 0 W/m 9,0 km/h (2 Bft) 100,00 %
11.08.2018 00:54 18,3 C 17,8 C 17,2 C 61 % 1017,5 hPa 0,0 l/m 0 min 0 min 0 W/m 9,0 km/h (2 Bft) 100,00 %
11.08.2018 00:56 18,3 C 17,8 C 17,2 C 61 % 1017,5 hPa 0,0 l/m 0 min 0 min 0 W/m 11,3 km/h (2 Bft) 100,00 %
11.08.2018 00:58 18,3 C 17,8 C 17,2 C 61 % 1017,5 hPa 0,0 l/m 0 min 0 min 0 W/m 9,0 km/h (2 Bft) 100,00 %
11.08.2018 01:00 18,3 C 17,2 C 17,2 C 61 % 1017,5 hPa 0,0 l/m 0 min 0 min 0 W/m 6,8 km/h (2 Bft) 97,87 %
11.08.2018 01:02 18,3 C 17,2 C 17,2 C 61 % 1017,5 hPa 0,0 l/m 0 min 0 min 0 W/m 6,8 km/h (2 Bft) 95,74 %
11.08.2018 01:04 18,2 C 17,8 C 17,2 C 61 % 1017,5 hPa 0,0 l/m 0 min 0 min 0 W/m 9,0 km/h (2 Bft) 97,87 %
11.08.2018 01:06 18,2 C 17,2 C 17,2 C 61 % 1017,5 hPa 0,0 l/m 0 min 0 min 0 W/m 6,8 km/h (2 Bft) 97,87 %
11.08.2018 01:08 18,2 C 17,2 C 17,2 C 61 % 1017,4 hPa 0,0 l/m 0 min 0 min 0 W/m 6,8 km/h (2 Bft) 100,00 %
11.08.2018 01:10 18,2 C 17,2 C 17,2 C 61 % 1017,4 hPa 0,0 l/m 0 min 0 min 0 W/m 4,5 km/h (1 Bft) 97,87 %
11.08.2018 01:12 18,2 C 17,2 C 17,2 C 61 % 1017,4 hPa 0,0 l/m 0 min 0 min 0 W/m 4,5 km/h (1 Bft) 95,74 %
11.08.2018 01:14 18,2 C 17,2 C 17,2 C 61 % 1017,4 hPa 0,0 l/m 0 min 0 min 0 W/m 6,8 km/h (2 Bft) 100,00 %
11.08.2018 01:16 18,2 C 17,2 C 17,2 C 61 % 1017,4 hPa 0,0 l/m 0 min 0 min 0 W/m 4,5 km/h (1 Bft) 100,00 %
11.08.2018 01:18 18,2 C 17,2 C 17,2 C 61 % 1017,4 hPa 0,0 l/m 0 min 0 min 0 W/m 6,8 km/h (2 Bft) 100,00 %
11.08.2018 01:20 18,2 C 17,8 C 17,2 C 61 % 1017,4 hPa 0,0 l/m 0 min 0 min 0 W/m 9,0 km/h (2 Bft) 97,87 %
11.08.2018 01:22 18,2 C 17,8 C 17,2 C 61 % 1017,4 hPa 0,0 l/m 0 min 0 min 0 W/m 9,0 km/h (2 Bft) 97,87 %
11.08.2018 01:24 18,2 C 17,8 C 17,2 C 61 % 1017,3 hPa 0,0 l/m 0 min 0 min 0 W/m 9,0 km/h (2 Bft) 97,87 %
11.08.2018 01:26 18,2 C 17,8 C 17,8 C 61 % 1017,3 hPa 0,0 l/m 0 min 0 min 0 W/m 6,8 km/h (2 Bft) 97,87 %
11.08.2018 01:28 18,2 C 17,8 C 17,8 C 61 % 1017,3 hPa 0,0 l/m 0 min 0 min 0 W/m 6,8 km/h (2 Bft) 97,87 %
11.08.2018 01:30 18,2 C 17,8 C 17,8 C 61 % 1017,4 hPa 0,0 l/m 0 min 0 min 0 W/m 6,8 km/h (2 Bft) 97,87 %
11.08.2018 01:32 18,2 C 17,8 C 17,8 C 61 % 1017,3 hPa 0,0 l/m 0 min 0 min 0 W/m 11,3 km/h (2 Bft) 95,65 %
11.08.2018 01:34 18,2 C 17,8 C 17,8 C 61 % 1017,3 hPa 0,0 l/m 0 min 0 min 0 W/m 9,0 km/h (2 Bft) 95,74 %
11.08.2018 01:36 18,2 C 17,8 C 17,8 C 61 % 1017,3 hPa 0,0 l/m 0 min 0 min 0 W/m 9,0 km/h (2 Bft) 97,87 %
11.08.2018 01:38 18,2 C 17,8 C 17,8 C 61 % 1017,3 hPa 0,0 l/m 0 min 0 min 0 W/m 9,0 km/h (2 Bft) 95,74 %
11.08.2018 01:40 18,2 C 17,8 C 17,8 C 61 % 1017,2 hPa 0,0 l/m 0 min 0 min 0 W/m 9,0 km/h (2 Bft) 95,74 %
11.08.2018 01:42 18,3 C 17,8 C 17,8 C 61 % 1017,1 hPa 0,0 l/m 0 min 0 min 0 W/m 6,8 km/h (2 Bft) 97,87 %
11.08.2018 01:44 18,3 C 17,8 C 17,8 C 61 % 1017,2 hPa 0,0 l/m 0 min 0 min 0 W/m 9,0 km/h (2 Bft) 97,83 %
11.08.2018 01:46 18,3 C 17,8 C 17,8 C 61 % 1017,1 hPa 0,0 l/m 0 min 0 min 0 W/m 11,3 km/h (2 Bft) 95,74 %
11.08.2018 01:48 18,3 C 17,8 C 17,8 C 61 % 1017,2 hPa 0,0 l/m 0 min 0 min 0 W/m 6,8 km/h (2 Bft) 93,62 %
11.08.2018 01:50 18,3 C 17,8 C 17,8 C 61 % 1017,2 hPa 0,0 l/m 0 min 0 min 0 W/m 9,0 km/h (2 Bft) 95,74 %
11.08.2018 01:52 18,3 C 17,8 C 17,8 C 61 % 1017,2 hPa 0,0 l/m 0 min 0 min 0 W/m 9,0 km/h (2 Bft) 95,74 %
11.08.2018 01:54 18,4 C 17,8 C 17,8 C 61 % 1017,3 hPa 0,0 l/m 0 min 0 min 0 W/m 6,8 km/h (2 Bft) 95,74 %
11.08.2018 01:56 18,4 C 17,8 C 17,8 C 61 % 1017,2 hPa 0,0 l/m 0 min 0 min 0 W/m 6,8 km/h (2 Bft) 95,65 %
11.08.2018 01:58 18,4 C 17,8 C 17,8 C 61 % 1017,3 hPa 0,0 l/m 0 min 0 min 0 W/m 6,8 km/h (2 Bft) 95,74 %
11.08.2018 02:00 18,4 C 17,8 C 17,8 C 61 % 1017,4 hPa 0,0 l/m 0 min 0 min 0 W/m 11,3 km/h (2 Bft) 95,74 %
11.08.2018 02:02 18,4 C 17,8 C 17,8 C 60 % 1017,4 hPa 0,0 l/m 0 min 0 min 0 W/m 6,8 km/h (2 Bft) 95,74 %
11.08.2018 02:04 18,4 C 17,8 C 17,8 C 60 % 1017,3 hPa 0,0 l/m 0 min 0 min 0 W/m 9,0 km/h (2 Bft) 91,49 %
11.08.2018 02:06 18,4 C 17,8 C 17,8 C 61 % 1017,4 hPa 0,0 l/m 0 min 0 min 0 W/m 13,5 km/h (3 Bft) 97,87 %
11.08.2018 02:08 18,4 C 17,8 C 17,8 C 61 % 1017,4 hPa 0,0 l/m 0 min 0 min 0 W/m 6,8 km/h (2 Bft) 97,83 %
11.08.2018 02:10 18,5 C 17,8 C 17,8 C 61 % 1017,4 hPa 0,0 l/m 0 min 0 min 0 W/m 13,5 km/h (3 Bft) 95,74 %
11.08.2018 02:12 18,5 C 17,8 C 17,8 C 61 % 1017,5 hPa 0,0 l/m 0 min 0 min 0 W/m 9,0 km/h (2 Bft) 97,87 %
11.08.2018 02:14 18,5 C 17,8 C 17,2 C 62 % 1017,6 hPa 0,0 l/m 0 min 0 min 0 W/m 18,0 km/h (3 Bft) 97,87 %
11.08.2018 02:16 18,5 C 17,2 C 17,2 C 64 % 1017,6 hPa 0,0 l/m 0 min 0 min 0 W/m 11,3 km/h (2 Bft) 95,74 %
11.08.2018 02:18 18,5 C 17,2 C 16,7 C 66 % 1017,6 hPa 0,0 l/m 0 min 0 min 0 W/m 6,8 km/h (2 Bft) 97,87 %
11.08.2018 02:20 18,5 C 17,2 C 16,7 C 68 % 1017,7 hPa 0,0 l/m 0 min 0 min 0 W/m 11,3 km/h (2 Bft) 97,83 %
11.08.2018 02:22 18,4 C 16,7 C 16,7 C 69 % 1017,7 hPa 0,0 l/m 0 min 0 min 0 W/m 11,3 km/h (2 Bft) 95,74 %
11.08.2018 02:24 18,3 C 16,7 C 16,7 C 70 % 1017,7 hPa 0,0 l/m 0 min 0 min 0 W/m 18,0 km/h (3 Bft) 97,87 %
11.08.2018 02:26 18,3 C 16,7 C 16,7 C 70 % 1017,8 hPa 0,0 l/m 0 min 0 min 0 W/m 15,8 km/h (3 Bft) 97,87 %
11.08.2018 02:28 18,2 C 16,7 C 16,7 C 71 % 1017,8 hPa 0,0 l/m 0 min 0 min 0 W/m 11,3 km/h (2 Bft) 91,49 %
11.08.2018 02:30 18,2 C 16,7 C 16,7 C 72 % 1017,9 hPa 0,0 l/m 0 min 0 min 0 W/m 18,0 km/h (3 Bft) 100,00 %
11.08.2018 02:32 18,1 C 16,7 C 16,7 C 72 % 1018,0 hPa 0,0 l/m 0 min 0 min 0 W/m 13,5 km/h (3 Bft) 100,00 %
11.08.2018 02:34 18,0 C 16,7 C 16,1 C 73 % 1018,2 hPa 0,0 l/m 0 min 0 min 0 W/m 20,3 km/h (4 Bft) 97,87 %
11.08.2018 02:36 17,9 C 16,1 C 16,1 C 74 % 1018,1 hPa 0,0 l/m 0 min 2 min 0 W/m 9,0 km/h (2 Bft) 100,00 %
11.08.2018 02:38 17,9 C 16,1 C 16,1 C 75 % 1018,1 hPa 0,0 l/m 0 min 2 min 0 W/m 18,0 km/h (3 Bft) 97,87 %
11.08.2018 02:40 17,8 C 15,6 C 15,6 C 76 % 1018,1 hPa 0,0 l/m 0 min 2 min 0 W/m 13,5 km/h (3 Bft) 97,87 %
11.08.2018 02:42 17,8 C 15,0 C 15,0 C 78 % 1018,1 hPa 0,0 l/m 0 min 2 min 0 W/m 11,3 km/h (2 Bft) 95,74 %
11.08.2018 02:44 17,7 C 14,4 C 15,0 C 78 % 1018,0 hPa 0,0 l/m 0 min 2 min 0 W/m 15,8 km/h (3 Bft) 97,83 %
11.08.2018 02:46 17,6 C 14,4 C 15,0 C 79 % 1018,1 hPa 0,0 l/m 0 min 2 min 0 W/m 15,8 km/h (3 Bft) 97,87 %
11.08.2018 02:48 17,5 C 14,4 C 15,0 C 80 % 1018,2 hPa 0,0 l/m 0 min 2 min 0 W/m 15,8 km/h (3 Bft) 95,74 %
11.08.2018 02:50 17,4 C 14,4 C 15,0 C 81 % 1018,2 hPa 0,0 l/m 0 min 2 min 0 W/m 6,8 km/h (2 Bft) 97,87 %
11.08.2018 02:52 17,2 C 14,4 C 15,0 C 81 % 1018,3 hPa 0,0 l/m 0 min 2 min 0 W/m 9,0 km/h (2 Bft) 97,87 %
11.08.2018 02:54 17,1 C 14,4 C 14,4 C 82 % 1018,3 hPa 0,0 l/m 0 min 2 min 0 W/m 18,0 km/h (3 Bft) 100,00 %
11.08.2018 02:56 16,9 C 13,9 C 14,4 C 82 % 1018,5 hPa 0,2 l/m 0 min 2 min 0 W/m 24,8 km/h (4 Bft) 97,87 %
11.08.2018 02:58 16,7 C 13,3 C 13,3 C 83 % 1018,6 hPa 0,4 l/m 0 min 2 min 0 W/m 11,3 km/h (2 Bft) 95,65 %
11.08.2018 03:00 16,6 C 13,3 C 13,3 C 83 % 1018,5 hPa 0,2 l/m 0 min 2 min 0 W/m 9,0 km/h (2 Bft) 95,74 %
11.08.2018 03:02 16,4 C 12,8 C 13,3 C 84 % 1018,6 hPa 0,2 l/m 0 min 2 min 0 W/m 9,0 km/h (2 Bft) 98,21 %
11.08.2018 03:04 16,2 C 12,8 C 12,8 C 84 % 1018,5 hPa 0,0 l/m 0 min 2 min 0 W/m 13,5 km/h (3 Bft) 97,96 %
11.08.2018 03:06 16,1 C 12,8 C 12,8 C 85 % 1018,5 hPa 0,2 l/m 0 min 2 min 0 W/m 9,0 km/h (2 Bft) 97,87 %
11.08.2018 03:08 15,9 C 12,8 C 12,8 C 85 % 1018,6 hPa 0,0 l/m 0 min 2 min 0 W/m 9,0 km/h (2 Bft) 97,87 %
11.08.2018 03:10 15,8 C 12,8 C 12,8 C 85 % 1018,4 hPa 0,2 l/m 0 min 2 min 0 W/m 9,0 km/h (2 Bft) 93,62 %
11.08.2018 03:12 15,6 C 12,8 C 12,8 C 85 % 1018,4 hPa 0,2 l/m 0 min 2 min 0 W/m 6,8 km/h (2 Bft) 97,87 %
11.08.2018 03:14 15,5 C 12,8 C 12,8 C 86 % 1018,4 hPa 0,0 l/m 0 min 2 min 0 W/m 6,8 km/h (2 Bft) 97,87 %
11.08.2018 03:16 15,4 C 12,8 C 12,8 C 86 % 1018,4 hPa 0,0 l/m 0 min 2 min 0 W/m 2,3 km/h (1 Bft) 97,87 %
11.08.2018 03:18 15,3 C 12,8 C 12,8 C 87 % 1018,4 hPa 0,2 l/m 0 min 2 min 0 W/m 6,8 km/h (2 Bft) 97,83 %
11.08.2018 03:20 15,2 C 12,8 C 12,8 C 87 % 1018,4 hPa 0,0 l/m 0 min 2 min 0 W/m 4,5 km/h (1 Bft) 97,62 %
11.08.2018 03:22 15,1 C 12,8 C 12,8 C 88 % 1018,4 hPa 0,0 l/m 0 min 2 min 0 W/m 4,5 km/h (1 Bft) 95,83 %
11.08.2018 03:24 15,1 C 12,8 C 12,8 C 88 % 1018,4 hPa 0,0 l/m 0 min 2 min 0 W/m 4,5 km/h (1 Bft) 97,87 %
11.08.2018 03:26 15,0 C 12,8 C 12,8 C 88 % 1018,4 hPa 0,0 l/m 0 min 2 min 0 W/m 2,3 km/h (1 Bft) 97,96 %
11.08.2018 03:28 14,9 C 12,8 C 12,8 C 88 % 1018,4 hPa 0,0 l/m 0 min 2 min 0 W/m 0,0 km/h (0 Bft) 97,87 %
11.08.2018 03:30 14,9 C 12,8 C 12,8 C 89 % 1018,4 hPa 0,2 l/m 0 min 2 min 0 W/m 6,8 km/h (2 Bft) 95,74 %
11.08.2018 03:32 14,9 C 12,8 C 12,8 C 89 % 1018,5 hPa 0,0 l/m 0 min 2 min 0 W/m 2,3 km/h (1 Bft) 97,87 %
11.08.2018 03:34 14,8 C 12,8 C 12,8 C 89 % 1018,5 hPa 0,0 l/m 0 min 0 min 0 W/m 0,0 km/h (0 Bft) 97,87 %
11.08.2018 03:36 14,8 C 12,8 C 12,8 C 89 % 1018,4 hPa 0,0 l/m 0 min 0 min 0 W/m 0,0 km/h (0 Bft) 97,87 %
11.08.2018 03:38 14,8 C 12,8 C 12,8 C 89 % 1018,4 hPa 0,0 l/m 0 min 2 min 0 W/m 4,5 km/h (1 Bft) 95,83 %
11.08.2018 03:40 14,7 C 12,8 C 13,3 C 90 % 1018,4 hPa 0,0 l/m 0 min 2 min 0 W/m 2,3 km/h (1 Bft) 100,00 %
11.08.2018 03:42 14,7 C 13,3 C 13,3 C 90 % 1018,4 hPa 0,0 l/m 0 min 2 min 0 W/m 0,0 km/h (0 Bft) 97,87 %
11.08.2018 03:44 14,7 C 12,8 C 13,3 C 90 % 1018,4 hPa 0,0 l/m 0 min 0 min 0 W/m 4,5 km/h (1 Bft) 97,87 %
11.08.2018 03:46 14,7 C 12,8 C 13,3 C 90 % 1018,3 hPa 0,0 l/m 0 min 0 min 0 W/m 2,3 km/h (1 Bft) 97,83 %
11.08.2018 03:48 14,7 C 12,8 C 13,3 C 90 % 1018,2 hPa 0,0 l/m 0 min 2 min 0 W/m 4,5 km/h (1 Bft) 96,43 %
11.08.2018 03:50 14,6 C 12,8 C 13,3 C 91 % 1018,1 hPa 0,0 l/m 0 min 0 min 0 W/m 0,0 km/h (0 Bft) 97,83 %
11.08.2018 03:52 14,6 C 12,8 C 13,3 C 91 % 1018,0 hPa 0,0 l/m 0 min 0 min 0 W/m 2,3 km/h (1 Bft) 100,00 %
11.08.2018 03:54 14,6 C 12,8 C 12,8 C 91 % 1018,0 hPa 0,0 l/m 0 min 2 min 0 W/m 4,5 km/h (1 Bft) 100,00 %
11.08.2018 03:56 14,5 C 12,8 C 12,8 C 91 % 1018,1 hPa 0,0 l/m 0 min 2 min 0 W/m 2,3 km/h (1 Bft) 95,74 %
11.08.2018 03:58 14,5 C 12,8 C 13,3 C 91 % 1018,2 hPa 0,0 l/m 0 min 2 min 0 W/m 0,0 km/h (0 Bft) 100,00 %
11.08.2018 04:00 14,4 C 12,8 C 13,3 C 91 % 1018,2 hPa 0,0 l/m 0 min 0 min 0 W/m 0,0 km/h (0 Bft) 95,92 %
11.08.2018 04:02 14,4 C 12,8 C 13,3 C 91 % 1018,2 hPa 0,0 l/m 0 min 0 min 0 W/m 4,5 km/h (1 Bft) 97,06 %
11.08.2018 04:04 14,4 C 12,8 C 12,8 C 92 % 1018,2 hPa 0,0 l/m 0 min 0 min 0 W/m 2,3 km/h (1 Bft) 95,74 %
11.08.2018 04:06 14,4 C 12,8 C 12,8 C 91 % 1018,2 hPa 0,0 l/m 0 min 0 min 0 W/m 2,3 km/h (1 Bft) 97,87 %
11.08.2018 04:08 14,3 C 12,8 C 12,8 C 92 % 1018,3 hPa 0,0 l/m 0 min 0 min 0 W/m 4,5 km/h (1 Bft) 95,74 %
11.08.2018 04:10 14,2 C 12,8 C 12,8 C 92 % 1018,2 hPa 0,0 l/m 0 min 0 min 0 W/m 0,0 km/h (0 Bft) 93,62 %
11.08.2018 04:12 14,2 C 12,8 C 12,8 C 92 % 1018,2 hPa 0,0 l/m 0 min 0 min 0 W/m 4,5 km/h (1 Bft) 97,87 %
11.08.2018 04:14 14,2 C 12,8 C 12,8 C 92 % 1018,0 hPa 0,0 l/m 0 min 0 min 0 W/m 0,0 km/h (0 Bft) 100,00 %
11.08.2018 04:16 14,2 C 12,8 C 12,8 C 92 % 1018,0 hPa 0,0 l/m 0 min 0 min 0 W/m 2,3 km/h (1 Bft) 98,18 %
11.08.2018 04:18 14,2 C 12,8 C 12,8 C 92 % 1018,0 hPa 0,0 l/m 0 min 0 min 0 W/m 2,3 km/h (1 Bft) 97,87 %
11.08.2018 04:20 14,2 C 12,8 C 12,8 C 92 % 1018,2 hPa 0,0 l/m 0 min 2 min 0 W/m 2,3 km/h (1 Bft) 93,62 %
11.08.2018 04:22 14,2 C 12,8 C 12,8 C 92 % 1018,1 hPa 0,0 l/m 0 min 0 min 0 W/m 0,0 km/h (0 Bft) 95,74 %
11.08.2018 04:24 14,2 C 12,8 C 12,8 C 92 % 1018,1 hPa 0,0 l/m 0 min 0 min 0 W/m 2,3 km/h (1 Bft) 97,87 %
11.08.2018 04:26 14,2 C 12,8 C 12,8 C 92 % 1018,2 hPa 0,0 l/m 0 min 0 min 0 W/m 2,3 km/h (1 Bft) 97,83 %
11.08.2018 04:28 14,2 C 12,2 C 12,8 C 92 % 1018,2 hPa 0,0 l/m 0 min 0 min 0 W/m 2,3 km/h (1 Bft) 96,00 %
11.08.2018 04:30 14,1 C 12,8 C 12,8 C 92 % 1018,2 hPa 0,0 l/m 0 min 0 min 0 W/m 0,0 km/h (0 Bft) 97,87 %
11.08.2018 04:32 14,1 C 12,8 C 12,8 C 92 % 1018,2 hPa 0,0 l/m 0 min 0 min 0 W/m 2,3 km/h (1 Bft) 97,87 %
11.08.2018 04:34 14,1 C 12,8 C 12,8 C 93 % 1018,2 hPa 0,0 l/m 0 min 0 min 0 W/m 2,3 km/h (1 Bft) 97,87 %
11.08.2018 04:36 14,1 C 12,8 C 12,8 C 93 % 1018,2 hPa 0,0 l/m 0 min 0 min 0 W/m 0,0 km/h (0 Bft) 97,83 %
11.08.2018 04:38 14,0 C 12,8 C 12,8 C 93 % 1018,2 hPa 0,0 l/m 0 min 0 min 0 W/m 0,0 km/h (0 Bft) 97,92 %
11.08.2018 04:40 14,0 C 12,2 C 12,8 C 93 % 1018,2 hPa 0,0 l/m 0 min 0 min 0 W/m 0,0 km/h (0 Bft) 94,29 %
11.08.2018 04:42 14,0 C 12,2 C 12,8 C 93 % 1018,2 hPa 0,0 l/m 0 min 0 min 0 W/m 0,0 km/h (0 Bft) 97,67 %
11.08.2018 04:44 13,9 C 12,2 C 12,8 C 93 % 1018,2 hPa 0,0 l/m 0 min 0 min 0 W/m 0,0 km/h (0 Bft) 96,77 %
11.08.2018 04:46 13,9 C 12,2 C 12,8 C 93 % 1018,2 hPa 0,0 l/m 0 min 0 min 0 W/m 2,3 km/h (1 Bft) 95,74 %
11.08.2018 04:48 13,9 C 12,2 C 12,2 C 93 % 1018,2 hPa 0,0 l/m 0 min 0 min 0 W/m 2,3 km/h (1 Bft) 95,65 %
11.08.2018 04:50 13,8 C 12,2 C 12,2 C 93 % 1018,3 hPa 0,0 l/m 0 min 0 min 0 W/m 2,3 km/h (1 Bft) 93,62 %
11.08.2018 04:52 13,8 C 12,2 C 12,8 C 93 % 1018,2 hPa 0,0 l/m 0 min 0 min 0 W/m 2,3 km/h (1 Bft) 93,62 %
11.08.2018 04:54 13,8 C 12,2 C 12,8 C 93 % 1018,3 hPa 0,0 l/m 0 min 0 min 0 W/m 0,0 km/h (0 Bft) 95,74 %
11.08.2018 04:56 13,7 C 12,2 C 12,2 C 93 % 1018,3 hPa 0,0 l/m 0 min 0 min 0 W/m 2,3 km/h (1 Bft) 95,74 %
11.08.2018 04:58 13,7 C 12,2 C 12,8 C 93 % 1018,3 hPa 0,0 l/m 0 min 0 min 0 W/m 2,3 km/h (1 Bft) 93,62 %
11.08.2018 05:00 13,7 C 12,2 C 12,2 C 93 % 1018,3 hPa 0,0 l/m 0 min 0 min 0 W/m 0,0 km/h (0 Bft) 95,74 %
11.08.2018 05:02 13,6 C 12,2 C 12,2 C 93 % 1018,2 hPa 0,0 l/m 0 min 0 min 0 W/m 0,0 km/h (0 Bft) 94,29 %
11.08.2018 05:04 13,6 C 12,2 C 12,2 C 93 % 1018,3 hPa 0,0 l/m 0 min 0 min 0 W/m 2,3 km/h (1 Bft) 93,62 %
11.08.2018 05:06 13,6 C 12,2 C 12,2 C 93 % 1018,3 hPa 0,0 l/m 0 min 0 min 0 W/m 2,3 km/h (1 Bft) 97,83 %
11.08.2018 05:08 13,5 C 12,2 C 12,2 C 93 % 1018,3 hPa 0,0 l/m 0 min 0 min 0 W/m 2,3 km/h (1 Bft) 98,21 %
11.08.2018 05:10 13,5 C 12,2 C 12,2 C 93 % 1018,3 hPa 0,0 l/m 0 min 0 min 0 W/m 2,3 km/h (1 Bft) 100,00 %
11.08.2018 05:12 13,5 C 12,2 C 12,2 C 93 % 1018,3 hPa 0,0 l/m 0 min 0 min 0 W/m 2,3 km/h (1 Bft) 97,96 %
11.08.2018 05:14 13,4 C 12,2 C 12,2 C 93 % 1018,4 hPa 0,0 l/m 0 min 0 min 0 W/m 4,5 km/h (1 Bft) 97,87 %
11.08.2018 05:16 13,4 C 12,2 C 12,2 C 93 % 1018,4 hPa 0,0 l/m 0 min 0 min 0 W/m 0,0 km/h (0 Bft) 93,62 %
11.08.2018 05:18 13,4 C 12,2 C 12,2 C 93 % 1018,5 hPa 0,0 l/m 0 min 0 min 0 W/m 2,3 km/h (1 Bft) 97,87 %
11.08.2018 05:20 13,4 C 12,2 C 12,2 C 93 % 1018,5 hPa 0,0 l/m 0 min 0 min 0 W/m 0,0 km/h (0 Bft) 97,87 %
11.08.2018 05:22 13,4 C 12,2 C 12,2 C 93 % 1018,6 hPa 0,0 l/m 0 min 0 min 0 W/m 2,3 km/h (1 Bft) 97,87 %
11.08.2018 05:24 13,4 C 12,2 C 12,2 C 93 % 1018,6 hPa 0,0 l/m 0 min 0 min 0 W/m 2,3 km/h (1 Bft) 97,87 %
11.08.2018 05:26 13,4 C 12,2 C 12,2 C 93 % 1018,5 hPa 0,0 l/m 0 min 0 min 0 W/m 2,3 km/h (1 Bft) 97,83 %
11.08.2018 05:28 13,4 C 12,2 C 12,8 C 93 % 1018,6 hPa 0,0 l/m 0 min 0 min 0 W/m 2,3 km/h (1 Bft) 97,22 %
11.08.2018 05:30 13,3 C 12,2 C 12,2 C 93 % 1018,6 hPa 0,0 l/m 0 min 0 min 0 W/m 2,3 km/h (1 Bft) 97,83 %
11.08.2018 05:32 13,3 C 12,2 C 12,2 C 93 % 1018,6 hPa 0,0 l/m 0 min 0 min 0 W/m 2,3 km/h (1 Bft) 100,00 %
11.08.2018 05:34 13,3 C 12,2 C 12,8 C 94 % 1018,5 hPa 0,0 l/m 0 min 0 min 0 W/m 4,5 km/h (1 Bft) 95,74 %
11.08.2018 05:36 13,3 C 12,2 C 12,8 C 94 % 1018,6 hPa 0,0 l/m 0 min 0 min 0 W/m 0,0 km/h (0 Bft) 100,00 %
11.08.2018 05:38 13,3 C 12,2 C 12,2 C 94 % 1018,6 hPa 0,0 l/m 0 min 0 min 0 W/m 0,0 km/h (0 Bft) 100,00 %
11.08.2018 05:40 13,3 C 12,2 C 12,2 C 94 % 1018,6 hPa 0,0 l/m 0 min 0 min 0 W/m 2,3 km/h (1 Bft) 100,00 %
11.08.2018 05:42 13,3 C 12,2 C 12,2 C 94 % 1018,6 hPa 0,0 l/m 0 min 0 min 0 W/m 4,5 km/h (1 Bft) 97,87 %
11.08.2018 05:44 13,3 C 12,2 C 12,2 C 94 % 1018,6 hPa 0,0 l/m 0 min 0 min 0 W/m 2,3 km/h (1 Bft) 100,00 %
11.08.2018 05:46 13,3 C 12,2 C 12,2 C 94 % 1018,6 hPa 0,0 l/m 0 min 0 min 0 W/m 4,5 km/h (1 Bft) 100,00 %
11.08.2018 05:48 13,2 C 12,2 C 12,2 C 94 % 1018,5 hPa 0,0 l/m 0 min 0 min 0 W/m 2,3 km/h (1 Bft) 97,87 %
11.08.2018 05:50 13,2 C 12,2 C 12,2 C 94 % 1018,6 hPa 0,0 l/m 0 min 0 min 0 W/m 2,3 km/h (1 Bft) 100,00 %
11.08.2018 05:52 13,2 C 12,2 C 12,2 C 94 % 1018,6 hPa 0,0 l/m 0 min 0 min 0 W/m 4,5 km/h (1 Bft) 97,87 %
11.08.2018 05:54 13,2 C 12,2 C 12,2 C 94 % 1018,7 hPa 0,0 l/m 0 min 0 min 0 W/m 0,0 km/h (0 Bft) 100,00 %
11.08.2018 05:56 13,2 C 12,2 C 12,8 C 94 % 1018,7 hPa 0,0 l/m 0 min 0 min 0 W/m 0,0 km/h (0 Bft) 100,00 %
11.08.2018 05:58 13,2 C 12,2 C 12,8 C 94 % 1018,7 hPa 0,0 l/m 0 min 0 min 0 W/m 2,3 km/h (1 Bft) 100,00 %
11.08.2018 06:00 13,2 C 12,2 C 12,8 C 94 % 1018,9 hPa 0,0 l/m 0 min 0 min 0 W/m 2,3 km/h (1 Bft) 100,00 %
11.08.2018 06:02 13,2 C 12,2 C 12,8 C 94 % 1018,9 hPa 0,0 l/m 0 min 0 min 0 W/m 2,3 km/h (1 Bft) 100,00 %
11.08.2018 06:04 13,2 C 12,2 C 12,8 C 94 % 1018,8 hPa 0,0 l/m 0 min 0 min 0 W/m 0,0 km/h (0 Bft) 100,00 %
11.08.2018 06:08 13,3 C 12,2 C 12,8 C 94 % 1018,8 hPa 0,0 l/m 0 min 0 min 0 W/m 2,3 km/h (1 Bft) 100,00 %
11.08.2018 06:10 13,3 C 12,2 C 12,8 C 95 % 1018,8 hPa 0,0 l/m 0 min 0 min 0 W/m 0,0 km/h (0 Bft) 97,92 %
11.08.2018 06:12 13,2 C 12,2 C 12,2 C 95 % 1018,8 hPa 0,0 l/m 0 min 0 min 0 W/m 0,0 km/h (0 Bft) 100,00 %
11.08.2018 06:14 13,3 C 12,2 C 12,2 C 95 % 1018,8 hPa 0,0 l/m 0 min 0 min 0 W/m 0,0 km/h (0 Bft) 100,00 %
11.08.2018 06:16 13,3 C 12,2 C 12,2 C 95 % 1018,8 hPa 0,0 l/m 0 min 0 min 5 W/m 0,0 km/h (0 Bft) 100,00 %
11.08.2018 06:18 13,3 C 12,2 C 12,2 C 95 % 1018,9 hPa 0,0 l/m 0 min 0 min 5 W/m 0,0 km/h (0 Bft) 100,00 %
11.08.2018 06:20 13,2 C 12,2 C 12,2 C 94 % 1018,9 hPa 0,0 l/m 0 min 0 min 5 W/m 0,0 km/h (0 Bft) 100,00 %
11.08.2018 06:22 13,2 C 12,2 C 12,2 C 94 % 1018,9 hPa 0,0 l/m 0 min 0 min 5 W/m 0,0 km/h (0 Bft) 100,00 %
11.08.2018 06:24 13,2 C 12,2 C 12,2 C 95 % 1019,0 hPa 0,0 l/m 0 min 0 min 7 W/m 0,0 km/h (0 Bft) 100,00 %
11.08.2018 06:26 13,2 C 12,2 C 12,2 C 95 % 1019,0 hPa 0,0 l/m 0 min 0 min 7 W/m 2,3 km/h (1 Bft) 97,87 %
11.08.2018 06:28 13,2 C 12,2 C 12,2 C 95 % 1019,0 hPa 0,0 l/m 0 min 0 min 8 W/m 2,3 km/h (1 Bft) 100,00 %
11.08.2018 06:30 13,2 C 12,2 C 12,2 C 95 % 1019,0 hPa 0,0 l/m 0 min 0 min 9 W/m 0,0 km/h (0 Bft) 97,87 %
11.08.2018 06:32 13,2 C 12,2 C 12,2 C 95 % 1019,0 hPa 0,0 l/m 0 min 0 min 11 W/m 0,0 km/h (0 Bft) 100,00 %
11.08.2018 06:34 13,2 C 12,2 C 12,2 C 95 % 1019,0 hPa 0,0 l/m 0 min 0 min 11 W/m 0,0 km/h (0 Bft) 100,00 %
11.08.2018 06:36 13,2 C 12,2 C 12,2 C 95 % 1019,1 hPa 0,0 l/m 0 min 0 min 11 W/m 2,3 km/h (1 Bft) 95,83 %
11.08.2018 06:38 13,2 C 12,2 C 12,2 C 95 % 1019,1 hPa 0,0 l/m 0 min 0 min 12 W/m 2,3 km/h (1 Bft) 100,00 %
11.08.2018 06:40 13,2 C 12,2 C 12,2 C 95 % 1019,0 hPa 0,0 l/m 0 min 0 min 12 W/m 2,3 km/h (1 Bft) 100,00 %
11.08.2018 06:42 13,2 C 12,2 C 12,2 C 95 % 1019,1 hPa 0,0 l/m 0 min 0 min 14 W/m 2,3 km/h (1 Bft) 97,92 %
11.08.2018 06:44 13,2 C 12,2 C 12,2 C 95 % 1019,2 hPa 0,0 l/m 0 min 0 min 14 W/m 2,3 km/h (1 Bft) 100,00 %
11.08.2018 06:46 13,2 C 12,2 C 12,2 C 95 % 1019,1 hPa 0,0 l/m 0 min 0 min 15 W/m 0,0 km/h (0 Bft) 100,00 %
11.08.2018 06:48 13,2 C 12,2 C 12,2 C 95 % 1019,2 hPa 0,0 l/m 0 min 0 min 16 W/m 2,3 km/h (1 Bft) 100,00 %
11.08.2018 06:50 13,2 C 12,2 C 12,2 C 95 % 1019,1 hPa 0,0 l/m 0 min 0 min 18 W/m 0,0 km/h (0 Bft) 97,87 %
11.08.2018 06:52 13,2 C 12,2 C 12,2 C 95 % 1019,2 hPa 0,0 l/m 0 min 0 min 23 W/m 0,0 km/h (0 Bft) 95,74 %
11.08.2018 06:54 13,2 C 12,2 C 12,8 C 95 % 1019,2 hPa 0,0 l/m 0 min 0 min 31 W/m 4,5 km/h (1 Bft) 97,87 %
11.08.2018 06:56 13,2 C 12,2 C 12,2 C 95 % 1019,2 hPa 0,0 l/m 0 min 0 min 32 W/m 0,0 km/h (0 Bft) 100,00 %
11.08.2018 06:58 13,2 C 12,2 C 12,8 C 95 % 1019,2 hPa 0,0 l/m 0 min 0 min 32 W/m 2,3 km/h (1 Bft) 97,87 %
11.08.2018 07:00 13,2 C 12,2 C 12,8 C 95 % 1019,2 hPa 0,0 l/m 0 min 0 min 30 W/m 2,3 km/h (1 Bft) 93,02 %
11.08.2018 07:02 13,2 C 12,8 C 12,8 C 95 % 1019,3 hPa 0,0 l/m 0 min 0 min 31 W/m 4,5 km/h (1 Bft) 95,92 %
11.08.2018 07:04 13,3 C 12,8 C 12,8 C 95 % 1019,4 hPa 0,0 l/m 0 min 0 min 30 W/m 2,3 km/h (1 Bft) 93,88 %
11.08.2018 07:06 13,3 C 12,8 C 12,8 C 95 % 1019,4 hPa 0,0 l/m 0 min 0 min 26 W/m 2,3 km/h (1 Bft) 93,62 %
11.08.2018 07:08 13,3 C 12,8 C 12,8 C 95 % 1019,4 hPa 0,0 l/m 0 min 0 min 26 W/m 2,3 km/h (1 Bft) 95,65 %
11.08.2018 07:10 13,3 C 12,8 C 12,8 C 95 % 1019,5 hPa 0,0 l/m 0 min 0 min 28 W/m 2,3 km/h (1 Bft) 95,74 %
11.08.2018 07:12 13,3 C 12,8 C 12,8 C 95 % 1019,6 hPa 0,0 l/m 0 min 0 min 26 W/m 0,0 km/h (0 Bft) 95,74 %
11.08.2018 07:14 13,3 C 12,8 C 12,8 C 95 % 1019,6 hPa 0,0 l/m 0 min 0 min 25 W/m 2,3 km/h (1 Bft) 93,62 %
11.08.2018 07:16 13,3 C 12,8 C 12,8 C 95 % 1019,6 hPa 0,0 l/m 0 min 0 min 26 W/m 0,0 km/h (0 Bft) 95,74 %
11.08.2018 07:18 13,3 C 12,8 C 12,8 C 95 % 1019,5 hPa 0,0 l/m 0 min 0 min 27 W/m 2,3 km/h (1 Bft) 95,12 %
11.08.2018 07:20 13,3 C 12,8 C 12,8 C 95 % 1019,6 hPa 0,0 l/m 0 min 0 min 28 W/m 2,3 km/h (1 Bft) 96,36 %
11.08.2018 07:22 13,3 C 12,8 C 12,8 C 95 % 1019,5 hPa 0,0 l/m 0 min 0 min 30 W/m 2,3 km/h (1 Bft) 95,74 %
11.08.2018 07:24 13,4 C 12,8 C 12,8 C 95 % 1019,6 hPa 0,0 l/m 0 min 0 min 36 W/m 0,0 km/h (0 Bft) 95,24 %
11.08.2018 07:26 13,4 C 12,8 C 12,8 C 96 % 1019,6 hPa 0,0 l/m 0 min 0 min 46 W/m 4,5 km/h (1 Bft) 95,65 %
11.08.2018 07:28 13,4 C 12,8 C 12,8 C 96 % 1019,6 hPa 0,0 l/m 0 min 0 min 49 W/m 4,5 km/h (1 Bft) 93,62 %
11.08.2018 07:30 13,4 C 12,8 C 12,8 C 96 % 1019,5 hPa 0,0 l/m 0 min 0 min 53 W/m 2,3 km/h (1 Bft) 95,83 %
11.08.2018 07:32 13,4 C 12,8 C 12,8 C 96 % 1019,6 hPa 0,0 l/m 0 min 0 min 66 W/m 4,5 km/h (1 Bft) 95,92 %
11.08.2018 07:34 13,4 C 12,8 C 13,3 C 96 % 1019,6 hPa 0,0 l/m 0 min 0 min 83 W/m 2,3 km/h (1 Bft) 95,92 %
11.08.2018 07:36 13,4 C 13,3 C 13,3 C 96 % 1019,7 hPa 0,0 l/m 0 min 0 min 87 W/m 2,3 km/h (1 Bft) 95,74 %
11.08.2018 07:38 13,5 C 13,3 C 13,3 C 96 % 1019,6 hPa 0,0 l/m 0 min 0 min 66 W/m 2,3 km/h (1 Bft) 97,14 %
11.08.2018 07:40 13,5 C 13,3 C 13,3 C 96 % 1019,6 hPa 0,0 l/m 0 min 0 min 54 W/m 4,5 km/h (1 Bft) 94,92 %
11.08.2018 07:42 13,6 C 13,3 C 13,3 C 96 % 1019,6 hPa 0,0 l/m 0 min 0 min 49 W/m 2,3 km/h (1 Bft) 95,65 %
11.08.2018 07:44 13,6 C 13,3 C 13,3 C 96 % 1019,7 hPa 0,0 l/m 0 min 0 min 43 W/m 0,0 km/h (0 Bft) 95,74 %
11.08.2018 07:46 13,6 C 12,8 C 13,3 C 96 % 1019,7 hPa 0,0 l/m 0 min 0 min 36 W/m 4,5 km/h (1 Bft) 95,24 %
11.08.2018 07:48 13,6 C 12,8 C 13,3 C 96 % 1019,7 hPa 0,0 l/m 0 min 0 min 33 W/m 2,3 km/h (1 Bft) 95,74 %
11.08.2018 07:50 13,6 C 12,8 C 13,3 C 96 % 1019,7 hPa 0,0 l/m 0 min 0 min 35 W/m 2,3 km/h (1 Bft) 95,83 %
11.08.2018 07:52 13,6 C 12,8 C 13,3 C 96 % 1019,8 hPa 0,0 l/m 0 min 0 min 35 W/m 2,3 km/h (1 Bft) 91,84 %
11.08.2018 07:54 13,6 C 12,8 C 13,3 C 96 % 1019,8 hPa 0,0 l/m 0 min 0 min 35 W/m 4,5 km/h (1 Bft) 95,83 %
11.08.2018 07:56 13,6 C 12,8 C 13,3 C 96 % 1019,7 hPa 0,0 l/m 0 min 0 min 35 W/m 2,3 km/h (1 Bft) 95,74 %
11.08.2018 07:58 13,7 C 12,8 C 13,3 C 96 % 1019,9 hPa 0,0 l/m 0 min 0 min 37 W/m 2,3 km/h (1 Bft) 95,74 %
11.08.2018 08:00 13,7 C 12,8 C 13,3 C 96 % 1019,9 hPa 0,0 l/m 0 min 0 min 39 W/m 2,3 km/h (1 Bft) 93,62 %
11.08.2018 08:02 13,7 C 12,8 C 13,3 C 96 % 1020,0 hPa 0,0 l/m 0 min 0 min 39 W/m 4,5 km/h (1 Bft) 95,74 %
11.08.2018 08:04 13,7 C 13,3 C 13,3 C 96 % 1019,9 hPa 0,0 l/m 0 min 0 min 40 W/m 4,5 km/h (1 Bft) 97,87 %
11.08.2018 08:06 13,7 C 13,3 C 13,3 C 96 % 1020,0 hPa 0,0 l/m 0 min 0 min 42 W/m 2,3 km/h (1 Bft) 97,83 %
11.08.2018 08:08 13,7 C 13,3 C 13,3 C 96 % 1020,0 hPa 0,0 l/m 0 min 0 min 45 W/m 2,3 km/h (1 Bft) 97,62 %
11.08.2018 08:10 13,8 C 13,3 C 13,3 C 96 % 1020,0 hPa 0,0 l/m 0 min 0 min 45 W/m 2,3 km/h (1 Bft) 95,83 %
11.08.2018 08:12 13,8 C 13,3 C 13,9 C 96 % 1020,1 hPa 0,0 l/m 0 min 0 min 64 W/m 4,5 km/h (1 Bft) 95,83 %
11.08.2018 08:14 13,8 C 13,3 C 13,9 C 96 % 1020,0 hPa 0,0 l/m 0 min 0 min 51 W/m 4,5 km/h (1 Bft) 97,92 %
11.08.2018 08:16 13,8 C 13,3 C 13,9 C 96 % 1020,0 hPa 0,0 l/m 0 min 0 min 69 W/m 2,3 km/h (1 Bft) 95,83 %
11.08.2018 08:18 13,8 C 13,3 C 13,9 C 96 % 1020,0 hPa 0,0 l/m 0 min 0 min 68 W/m 6,8 km/h (2 Bft) 97,87 %
11.08.2018 08:20 13,9 C 13,3 C 13,9 C 96 % 1020,1 hPa 0,0 l/m 0 min 0 min 57 W/m 4,5 km/h (1 Bft) 97,87 %
11.08.2018 08:22 13,9 C 13,3 C 13,9 C 96 % 1020,1 hPa 0,0 l/m 0 min 0 min 61 W/m 4,5 km/h (1 Bft) 93,62 %
11.08.2018 08:24 13,9 C 13,3 C 13,9 C 96 % 1020,1 hPa 0,0 l/m 0 min 0 min 59 W/m 9,0 km/h (2 Bft) 93,62 %
11.08.2018 08:26 13,9 C 13,3 C 13,9 C 96 % 1020,2 hPa 0,0 l/m 0 min 0 min 47 W/m 4,5 km/h (1 Bft) 97,87 %
11.08.2018 08:28 13,9 C 13,3 C 13,9 C 96 % 1020,2 hPa 0,0 l/m 0 min 0 min 70 W/m 2,3 km/h (1 Bft) 100,00 %
11.08.2018 08:30 14,0 C 13,3 C 13,9 C 96 % 1020,3 hPa 0,0 l/m 0 min 0 min 63 W/m 4,5 km/h (1 Bft) 95,74 %
11.08.2018 08:32 14,0 C 13,3 C 13,9 C 96 % 1020,2 hPa 0,0 l/m 0 min 0 min 47 W/m 6,8 km/h (2 Bft) 97,62 %
11.08.2018 08:34 14,0 C 13,3 C 13,9 C 96 % 1020,3 hPa 0,0 l/m 0 min 0 min 50 W/m 4,5 km/h (1 Bft) 100,00 %
11.08.2018 08:36 14,1 C 13,9 C 13,9 C 96 % 1020,3 hPa 0,0 l/m 0 min 0 min 85 W/m 2,3 km/h (1 Bft) 100,00 %
11.08.2018 08:38 14,1 C 13,9 C 13,9 C 96 % 1020,3 hPa 0,0 l/m 0 min 0 min 90 W/m 2,3 km/h (1 Bft) 100,00 %
11.08.2018 08:40 14,2 C 13,9 C 13,9 C 96 % 1020,2 hPa 0,0 l/m 0 min 0 min 54 W/m 2,3 km/h (1 Bft) 97,87 %
11.08.2018 08:42 14,2 C 13,9 C 13,9 C 96 % 1020,3 hPa 0,0 l/m 0 min 0 min 49 W/m 4,5 km/h (1 Bft) 97,87 %
11.08.2018 08:44 14,2 C 13,9 C 13,9 C 96 % 1020,3 hPa 0,0 l/m 0 min 0 min 57 W/m 2,3 km/h (1 Bft) 100,00 %
11.08.2018 08:46 14,2 C 13,9 C 13,9 C 96 % 1020,3 hPa 0,0 l/m 0 min 0 min 57 W/m 4,5 km/h (1 Bft) 100,00 %
11.08.2018 08:48 14,2 C 13,9 C 13,9 C 96 % 1020,3 hPa 0,0 l/m 0 min 0 min 58 W/m 4,5 km/h (1 Bft) 100,00 %
11.08.2018 08:50 14,2 C 13,9 C 13,9 C 96 % 1020,3 hPa 0,0 l/m 0 min 0 min 65 W/m 4,5 km/h (1 Bft) 97,87 %
11.08.2018 08:52 14,2 C 13,9 C 13,9 C 96 % 1020,4 hPa 0,0 l/m 0 min 0 min 71 W/m 4,5 km/h (1 Bft) 100,00 %
11.08.2018 08:54 14,2 C 13,9 C 14,4 C 96 % 1020,4 hPa 0,0 l/m 0 min 0 min 71 W/m 2,3 km/h (1 Bft) 100,00 %
11.08.2018 08:56 14,2 C 13,9 C 14,4 C 96 % 1020,4 hPa 0,0 l/m 0 min 0 min 82 W/m 4,5 km/h (1 Bft) 100,00 %
11.08.2018 08:58 14,2 C 13,9 C 14,4 C 96 % 1020,4 hPa 0,0 l/m 0 min 0 min 90 W/m 4,5 km/h (1 Bft) 100,00 %
11.08.2018 09:00 14,2 C 14,4 C 14,4 C 96 % 1020,4 hPa 0,0 l/m 0 min 0 min 85 W/m 2,3 km/h (1 Bft) 100,00 %
11.08.2018 09:02 14,3 C 14,4 C 14,4 C 96 % 1020,5 hPa 0,0 l/m 0 min 0 min 183 W/m 4,5 km/h (1 Bft) 100,00 %
11.08.2018 09:04 14,3 C 13,9 C 14,4 C 96 % 1020,5 hPa 0,0 l/m 2 min 0 min 312 W/m 4,5 km/h (1 Bft) 100,00 %
11.08.2018 09:06 14,3 C 13,9 C 14,4 C 96 % 1020,4 hPa 0,0 l/m 2 min 0 min 327 W/m 2,3 km/h (1 Bft) 100,00 %
11.08.2018 09:08 14,4 C 14,4 C 14,4 C 96 % 1020,5 hPa 0,0 l/m 2 min 0 min 336 W/m 0,0 km/h (0 Bft) 100,00 %
11.08.2018 09:10 14,4 C 14,4 C 14,4 C 96 % 1020,5 hPa 0,0 l/m 2 min 0 min 338 W/m 4,5 km/h (1 Bft) 100,00 %
11.08.2018 09:12 14,4 C 15,0 C 14,4 C 96 % 1020,5 hPa 0,0 l/m 2 min 0 min 342 W/m 0,0 km/h (0 Bft) 100,00 %
11.08.2018 09:14 14,4 C 15,0 C 14,4 C 96 % 1020,5 hPa 0,0 l/m 2 min 0 min 350 W/m 2,3 km/h (1 Bft) 100,00 %
11.08.2018 09:16 14,5 C 15,0 C 14,4 C 96 % 1020,5 hPa 0,0 l/m 2 min 0 min 354 W/m 6,8 km/h (2 Bft) 100,00 %
11.08.2018 09:18 14,6 C 15,6 C 14,4 C 96 % 1020,5 hPa 0,0 l/m 2 min 0 min 360 W/m 2,3 km/h (1 Bft) 100,00 %
11.08.2018 09:20 14,6 C 15,6 C 14,4 C 96 % 1020,5 hPa 0,0 l/m 2 min 0 min 357 W/m 2,3 km/h (1 Bft) 100,00 %
11.08.2018 09:22 14,6 C 15,6 C 15,0 C 96 % 1020,5 hPa 0,0 l/m 2 min 0 min 372 W/m 2,3 km/h (1 Bft) 97,87 %
11.08.2018 09:24 14,7 C 15,0 C 15,0 C 96 % 1020,6 hPa 0,0 l/m 2 min 0 min 381 W/m 4,5 km/h (1 Bft) 100,00 %
11.08.2018 09:26 14,7 C 15,0 C 15,0 C 96 % 1020,5 hPa 0,0 l/m 2 min 0 min 386 W/m 2,3 km/h (1 Bft) 95,74 %
11.08.2018 09:28 14,7 C 15,0 C 15,0 C 96 % 1020,6 hPa 0,0 l/m 2 min 0 min 396 W/m 4,5 km/h (1 Bft) 93,62 %
11.08.2018 09:30 14,8 C 15,0 C 15,0 C 96 % 1020,6 hPa 0,0 l/m 2 min 0 min 403 W/m 2,3 km/h (1 Bft) 97,83 %
11.08.2018 09:32 14,9 C 15,0 C 15,0 C 95 % 1020,6 hPa 0,0 l/m 2 min 0 min 410 W/m 2,3 km/h (1 Bft) 100,00 %
11.08.2018 09:34 14,9 C 15,6 C 15,0 C 95 % 1020,6 hPa 0,0 l/m 2 min 0 min 412 W/m 6,8 km/h (2 Bft) 100,00 %
11.08.2018 09:36 15,0 C 16,1 C 15,0 C 95 % 1020,7 hPa 0,0 l/m 2 min 0 min 322 W/m 6,8 km/h (2 Bft) 97,83 %
11.08.2018 09:38 15,1 C 16,1 C 15,0 C 95 % 1020,7 hPa 0,0 l/m 2 min 0 min 411 W/m 4,5 km/h (1 Bft) 97,87 %
11.08.2018 09:40 15,1 C 16,7 C 15,0 C 95 % 1020,7 hPa 0,0 l/m 2 min 0 min 436 W/m 9,0 km/h (2 Bft) 97,87 %
11.08.2018 09:42 15,2 C 17,8 C 15,0 C 95 % 1020,7 hPa 0,0 l/m 2 min 0 min 454 W/m 2,3 km/h (1 Bft) 100,00 %
11.08.2018 09:44 15,3 C 18,9 C 15,6 C 94 % 1020,7 hPa 0,0 l/m 2 min 0 min 461 W/m 9,0 km/h (2 Bft) 100,00 %
11.08.2018 09:46 15,3 C 20,0 C 15,6 C 94 % 1020,7 hPa 0,0 l/m 2 min 0 min 466 W/m 9,0 km/h (2 Bft) 97,87 %
11.08.2018 09:48 15,4 C 20,6 C 15,6 C 93 % 1020,7 hPa 0,0 l/m 2 min 0 min 468 W/m 6,8 km/h (2 Bft) 97,83 %
11.08.2018 09:50 15,4 C 21,1 C 15,6 C 93 % 1020,8 hPa 0,0 l/m 2 min 0 min 496 W/m 4,5 km/h (1 Bft) 94,92 %
11.08.2018 09:52 15,5 C 21,1 C 15,6 C 92 % 1020,8 hPa 0,0 l/m 2 min 0 min 527 W/m 4,5 km/h (1 Bft) 97,14 %
11.08.2018 09:54 15,6 C 22,2 C 15,6 C 92 % 1020,8 hPa 0,0 l/m 2 min 0 min 525 W/m 4,5 km/h (1 Bft) 97,87 %
11.08.2018 09:56 15,7 C 21,1 C 15,6 C 91 % 1020,9 hPa 0,0 l/m 2 min 0 min 517 W/m 9,0 km/h (2 Bft) 97,87 %
11.08.2018 09:58 15,8 C 21,1 C 15,6 C 91 % 1020,8 hPa 0,0 l/m 2 min 0 min 556 W/m 4,5 km/h (1 Bft) 95,74 %
11.08.2018 10:00 15,9 C 21,1 C 15,6 C 90 % 1020,9 hPa 0,0 l/m 2 min 0 min 612 W/m 6,8 km/h (2 Bft) 97,83 %
11.08.2018 10:02 16,1 C 20,0 C 16,1 C 89 % 1020,8 hPa 0,0 l/m 2 min 0 min 575 W/m 4,5 km/h (1 Bft) 95,74 %
11.08.2018 10:04 16,2 C 18,3 C 16,1 C 88 % 1020,8 hPa 0,0 l/m 0 min 0 min 111 W/m 4,5 km/h (1 Bft) 97,87 %
11.08.2018 10:06 16,3 C 18,3 C 15,6 C 88 % 1020,8 hPa 0,0 l/m 0 min 0 min 176 W/m 4,5 km/h (1 Bft) 97,87 %
11.08.2018 10:08 16,4 C 17,2 C 15,6 C 87 % 1020,9 hPa 0,0 l/m 0 min 0 min 144 W/m 6,8 km/h (2 Bft) 95,74 %
11.08.2018 10:10 16,4 C 17,2 C 15,6 C 86 % 1020,9 hPa 0,0 l/m 0 min 0 min 108 W/m 4,5 km/h (1 Bft) 95,74 %
11.08.2018 10:12 16,5 C 17,8 C 15,6 C 85 % 1020,9 hPa 0,0 l/m 0 min 0 min 225 W/m 2,3 km/h (1 Bft) 97,83 %
11.08.2018 10:14 16,6 C 17,2 C 15,6 C 85 % 1020,9 hPa 0,0 l/m 2 min 0 min 536 W/m 4,5 km/h (1 Bft) 97,87 %
11.08.2018 10:16 16,7 C 17,8 C 15,6 C 84 % 1020,9 hPa 0,0 l/m 0 min 0 min 164 W/m 6,8 km/h (2 Bft) 97,87 %
11.08.2018 10:18 16,7 C 17,2 C 15,6 C 83 % 1020,8 hPa 0,0 l/m 0 min 0 min 142 W/m 6,8 km/h (2 Bft) 97,87 %
11.08.2018 10:20 16,7 C 17,2 C 15,6 C 82 % 1020,9 hPa 0,0 l/m 0 min 0 min 134 W/m 4,5 km/h (1 Bft) 98,28 %
11.08.2018 10:22 16,8 C 17,2 C 15,6 C 82 % 1020,9 hPa 0,0 l/m 0 min 0 min 208 W/m 6,8 km/h (2 Bft) 97,22 %
11.08.2018 10:24 16,8 C 17,8 C 16,1 C 81 % 1020,8 hPa 0,0 l/m 0 min 0 min 255 W/m 9,0 km/h (2 Bft) 97,83 %
11.08.2018 10:26 16,8 C 18,3 C 16,1 C 81 % 1020,8 hPa 0,0 l/m 0 min 0 min 210 W/m 9,0 km/h (2 Bft) 95,74 %
11.08.2018 10:28 16,9 C 19,4 C 16,1 C 81 % 1020,8 hPa 0,0 l/m 2 min 0 min 419 W/m 0,0 km/h (0 Bft) 95,74 %
11.08.2018 10:30 17,0 C 20,0 C 16,1 C 81 % 1020,8 hPa 0,0 l/m 2 min 0 min 657 W/m 6,8 km/h (2 Bft) 93,62 %
11.08.2018 10:32 17,1 C 19,4 C 16,1 C 80 % 1020,9 hPa 0,0 l/m 2 min 0 min 663 W/m 15,8 km/h (3 Bft) 93,62 %
11.08.2018 10:34 17,2 C 19,4 C 16,7 C 79 % 1020,8 hPa 0,0 l/m 2 min 0 min 658 W/m 9,0 km/h (2 Bft) 95,65 %
11.08.2018 10:36 17,2 C 19,4 C 16,7 C 79 % 1020,7 hPa 0,0 l/m 2 min 0 min 679 W/m 6,8 km/h (2 Bft) 96,30 %
11.08.2018 10:38 17,3 C 18,9 C 16,1 C 78 % 1020,8 hPa 0,0 l/m 0 min 0 min 219 W/m 11,3 km/h (2 Bft) 92,68 %
11.08.2018 10:40 17,4 C 19,4 C 16,7 C 77 % 1020,8 hPa 0,0 l/m 0 min 0 min 277 W/m 9,0 km/h (2 Bft) 93,62 %
11.08.2018 10:42 17,4 C 20,0 C 16,7 C 77 % 1020,7 hPa 0,0 l/m 2 min 0 min 724 W/m 2,3 km/h (1 Bft) 89,36 %
11.08.2018 10:44 17,5 C 18,9 C 16,7 C 77 % 1020,8 hPa 0,0 l/m 0 min 0 min 262 W/m 9,0 km/h (2 Bft) 91,49 %
11.08.2018 10:46 17,6 C 20,6 C 16,7 C 77 % 1020,8 hPa 0,0 l/m 0 min 0 min 211 W/m 9,0 km/h (2 Bft) 91,30 %
11.08.2018 10:48 17,6 C 22,2 C 16,7 C 75 % 1020,9 hPa 0,0 l/m 2 min 0 min 629 W/m 6,8 km/h (2 Bft) 95,74 %
11.08.2018 10:50 17,7 C 23,3 C 16,7 C 75 % 1020,8 hPa 0,0 l/m 2 min 0 min 775 W/m 6,8 km/h (2 Bft) 93,62 %
11.08.2018 10:52 17,8 C 23,3 C 16,7 C 75 % 1020,8 hPa 0,0 l/m 2 min 0 min 409 W/m 11,3 km/h (2 Bft) 96,36 %
11.08.2018 10:54 17,9 C 22,8 C 16,7 C 75 % 1020,8 hPa 0,0 l/m 0 min 0 min 269 W/m 6,8 km/h (2 Bft) 95,74 %
11.08.2018 10:56 18,0 C 20,6 C 16,7 C 75 % 1020,8 hPa 0,0 l/m 0 min 0 min 176 W/m 9,0 km/h (2 Bft) 95,74 %
11.08.2018 10:58 18,1 C 21,7 C 16,7 C 74 % 1020,8 hPa 0,0 l/m 0 min 0 min 183 W/m 9,0 km/h (2 Bft) 95,74 %
11.08.2018 11:00 18,1 C 23,3 C 16,7 C 73 % 1020,8 hPa 0,0 l/m 2 min 0 min 630 W/m 13,5 km/h (3 Bft) 95,74 %
11.08.2018 11:02 18,2 C 22,2 C 16,7 C 73 % 1020,8 hPa 0,0 l/m 2 min 0 min 496 W/m 9,0 km/h (2 Bft) 95,65 %
11.08.2018 11:04 18,3 C 20,6 C 16,7 C 73 % 1020,9 hPa 0,0 l/m 0 min 0 min 171 W/m 6,8 km/h (2 Bft) 93,62 %
11.08.2018 11:06 18,3 C 19,4 C 16,7 C 71 % 1020,8 hPa 0,0 l/m 0 min 0 min 180 W/m 11,3 km/h (2 Bft) 97,87 %
11.08.2018 11:08 18,3 C 20,0 C 16,7 C 70 % 1020,8 hPa 0,0 l/m 2 min 0 min 430 W/m 13,5 km/h (3 Bft) 97,87 %
11.08.2018 11:10 18,3 C 21,1 C 16,7 C 70 % 1020,9 hPa 0,0 l/m 2 min 0 min 668 W/m 6,8 km/h (2 Bft) 97,87 %
11.08.2018 11:12 18,4 C 22,2 C 16,7 C 71 % 1020,7 hPa 0,0 l/m 2 min 0 min 668 W/m 4,5 km/h (1 Bft) 95,74 %
11.08.2018 11:14 18,4 C 21,1 C 16,7 C 71 % 1020,8 hPa 0,0 l/m 2 min 0 min 624 W/m 11,3 km/h (2 Bft) 95,65 %
11.08.2018 11:16 18,5 C 20,0 C 16,7 C 70 % 1020,8 hPa 0,0 l/m 0 min 0 min 148 W/m 4,5 km/h (1 Bft) 95,74 %
11.08.2018 11:18 18,5 C 21,7 C 16,7 C 69 % 1020,8 hPa 0,0 l/m 0 min 0 min 158 W/m 11,3 km/h (2 Bft) 95,74 %
11.08.2018 11:20 18,6 C 20,0 C 16,7 C 69 % 1020,8 hPa 0,0 l/m 0 min 0 min 155 W/m 6,8 km/h (2 Bft) 95,74 %
11.08.2018 11:22 18,6 C 19,4 C 16,7 C 69 % 1020,9 hPa 0,0 l/m 0 min 0 min 135 W/m 9,0 km/h (2 Bft) 100,00 %
11.08.2018 11:24 18,6 C 18,9 C 16,7 C 68 % 1020,9 hPa 0,0 l/m 0 min 0 min 133 W/m 11,3 km/h (2 Bft) 100,00 %
11.08.2018 11:26 18,5 C 21,7 C 16,7 C 68 % 1020,9 hPa 0,0 l/m 0 min 0 min 196 W/m 9,0 km/h (2 Bft) 97,83 %
11.08.2018 11:28 18,6 C 23,3 C 16,7 C 68 % 1020,9 hPa 0,0 l/m 2 min 0 min 738 W/m 6,8 km/h (2 Bft) 100,00 %
11.08.2018 11:30 18,7 C 25,0 C 16,7 C 68 % 1020,8 hPa 0,0 l/m 2 min 0 min 746 W/m 9,0 km/h (2 Bft) 100,00 %
11.08.2018 11:32 18,8 C 26,7 C 17,2 C 68 % 1020,8 hPa 0,0 l/m 2 min 0 min 771 W/m 4,5 km/h (1 Bft) 100,00 %
11.08.2018 11:34 19,0 C 27,8 C 17,2 C 69 % 1020,8 hPa 0,0 l/m 2 min 0 min 808 W/m 6,8 km/h (2 Bft) 100,00 %
11.08.2018 11:36 19,2 C 28,3 C 17,8 C 68 % 1020,9 hPa 0,0 l/m 2 min 0 min 829 W/m 11,3 km/h (2 Bft) 95,74 %
11.08.2018 11:38 19,4 C 26,7 C 17,8 C 66 % 1020,8 hPa 0,0 l/m 2 min 0 min 841 W/m 13,5 km/h (3 Bft) 100,00 %
11.08.2018 11:40 19,6 C 22,8 C 17,8 C 65 % 1020,9 hPa 0,0 l/m 2 min 0 min 375 W/m 11,3 km/h (2 Bft) 100,00 %
11.08.2018 11:42 19,6 C 20,0 C 17,2 C 64 % 1021,0 hPa 0,0 l/m 0 min 0 min 146 W/m 9,0 km/h (2 Bft) 100,00 %
11.08.2018 11:44 19,6 C 20,6 C 16,7 C 64 % 1020,9 hPa 0,0 l/m 0 min 0 min 153 W/m 6,8 km/h (2 Bft) 100,00 %
11.08.2018 11:46 19,6 C 23,9 C 17,2 C 64 % 1020,9 hPa 0,0 l/m 2 min 0 min 580 W/m 4,5 km/h (1 Bft) 100,00 %
11.08.2018 11:48 19,6 C 26,1 C 17,2 C 66 % 1020,9 hPa 0,0 l/m 2 min 0 min 747 W/m 9,0 km/h (2 Bft) 97,87 %
11.08.2018 11:50 19,7 C 27,2 C 17,8 C 66 % 1020,8 hPa 0,0 l/m 2 min 0 min 749 W/m 9,0 km/h (2 Bft) 100,00 %
11.08.2018 11:52 19,9 C 26,7 C 17,8 C 65 % 1020,9 hPa 0,0 l/m 2 min 0 min 751 W/m 13,5 km/h (3 Bft) 100,00 %
11.08.2018 11:54 20,0 C 25,6 C 17,8 C 64 % 1020,9 hPa 0,0 l/m 2 min 0 min 768 W/m 9,0 km/h (2 Bft) 100,00 %
11.08.2018 11:56 20,1 C 25,0 C 17,8 C 63 % 1020,8 hPa 0,0 l/m 0 min 0 min 298 W/m 9,0 km/h (2 Bft) 100,00 %
11.08.2018 11:58 20,2 C 26,7 C 17,8 C 63 % 1020,8 hPa 0,0 l/m 2 min 0 min 791 W/m 20,3 km/h (4 Bft) 97,87 %
11.08.2018 12:00 20,3 C 26,7 C 17,8 C 63 % 1020,8 hPa 0,0 l/m 2 min 0 min 814 W/m 6,8 km/h (2 Bft) 100,00 %
11.08.2018 12:02 20,4 C 26,1 C 17,8 C 62 % 1020,9 hPa 0,0 l/m 2 min 0 min 832 W/m 6,8 km/h (2 Bft) 96,83 %
11.08.2018 12:04 20,6 C 26,1 C 18,3 C 63 % 1020,8 hPa 0,0 l/m 2 min 0 min 845 W/m 9,0 km/h (2 Bft) 100,00 %
11.08.2018 12:08 20,8 C 27,2 C 18,3 C 62 % 1020,8 hPa 0,0 l/m 4 min 0 min 827 W/m 6,8 km/h (2 Bft) 98,94 %
11.08.2018 12:10 20,9 C 27,8 C 18,3 C 62 % 1020,8 hPa 0,0 l/m 2 min 0 min 807 W/m 13,5 km/h (3 Bft) 100,00 %
11.08.2018 12:12 21,1 C 27,8 C 18,3 C 61 % 1020,8 hPa 0,0 l/m 2 min 0 min 829 W/m 22,5 km/h (4 Bft) 100,00 %
11.08.2018 12:14 21,1 C 25,6 C 18,3 C 59 % 1020,8 hPa 0,0 l/m 2 min 0 min 809 W/m 11,3 km/h (2 Bft) 100,00 %
11.08.2018 12:16 21,2 C 26,7 C 18,3 C 59 % 1020,9 hPa 0,0 l/m 2 min 0 min 456 W/m 9,0 km/h (2 Bft) 100,00 %
11.08.2018 12:18 21,3 C 27,2 C 18,3 C 59 % 1020,7 hPa 0,0 l/m 0 min 0 min 355 W/m 11,3 km/h (2 Bft) 100,00 %
11.08.2018 12:20 21,4 C 27,2 C 18,9 C 59 % 1020,8 hPa 0,0 l/m 0 min 0 min 336 W/m 11,3 km/h (2 Bft) 100,00 %
11.08.2018 12:22 21,5 C 27,8 C 18,9 C 59 % 1020,8 hPa 0,0 l/m 0 min 0 min 315 W/m 11,3 km/h (2 Bft) 100,00 %
11.08.2018 12:24 21,6 C 25,0 C 18,9 C 59 % 1020,8 hPa 0,0 l/m 0 min 0 min 354 W/m 9,0 km/h (2 Bft) 100,00 %
11.08.2018 12:26 21,6 C 25,6 C 18,9 C 59 % 1020,8 hPa 0,0 l/m 0 min 0 min 323 W/m 11,3 km/h (2 Bft) 100,00 %
11.08.2018 12:28 21,6 C 25,6 C 18,9 C 60 % 1020,8 hPa 0,0 l/m 0 min 0 min 297 W/m 9,0 km/h (2 Bft) 100,00 %
11.08.2018 12:30 21,7 C 23,9 C 18,9 C 60 % 1020,8 hPa 0,0 l/m 0 min 0 min 240 W/m 6,8 km/h (2 Bft) 100,00 %
11.08.2018 12:32 21,7 C 22,8 C 18,3 C 60 % 1020,8 hPa 0,0 l/m 0 min 0 min 206 W/m 4,5 km/h (1 Bft) 100,00 %
11.08.2018 12:34 21,6 C 21,1 C 18,3 C 59 % 1020,8 hPa 0,0 l/m 0 min 0 min 188 W/m 9,0 km/h (2 Bft) 100,00 %
11.08.2018 12:36 21,4 C 21,1 C 18,3 C 60 % 1020,8 hPa 0,0 l/m 0 min 0 min 196 W/m 9,0 km/h (2 Bft) 97,87 %
11.08.2018 12:38 21,3 C 22,2 C 17,8 C 58 % 1020,8 hPa 0,0 l/m 0 min 0 min 218 W/m 15,8 km/h (3 Bft) 100,00 %
11.08.2018 12:40 21,2 C 25,0 C 18,3 C 59 % 1020,7 hPa 0,0 l/m 0 min 0 min 258 W/m 9,0 km/h (2 Bft) 97,62 %
11.08.2018 12:42 21,2 C 25,0 C 18,3 C 59 % 1020,8 hPa 0,0 l/m 0 min 0 min 260 W/m 13,5 km/h (3 Bft) 100,00 %
11.08.2018 12:44 21,2 C 22,8 C 18,3 C 59 % 1020,8 hPa 0,0 l/m 0 min 0 min 202 W/m 9,0 km/h (2 Bft) 100,00 %
11.08.2018 12:46 21,1 C 22,8 C 17,8 C 59 % 1020,8 hPa 0,0 l/m 0 min 0 min 145 W/m 9,0 km/h (2 Bft) 100,00 %
11.08.2018 12:48 21,0 C 24,4 C 18,3 C 60 % 1020,8 hPa 0,0 l/m 0 min 0 min 142 W/m 6,8 km/h (2 Bft) 95,83 %
11.08.2018 12:50 21,0 C 26,1 C 18,3 C 60 % 1020,8 hPa 0,0 l/m 0 min 0 min 219 W/m 11,3 km/h (2 Bft) 97,87 %
11.08.2018 12:52 21,1 C 26,7 C 18,3 C 60 % 1020,7 hPa 0,0 l/m 2 min 0 min 457 W/m 9,0 km/h (2 Bft) 95,74 %
11.08.2018 12:54 21,1 C 27,2 C 18,9 C 59 % 1020,7 hPa 0,0 l/m 2 min 0 min 396 W/m 11,3 km/h (2 Bft) 97,87 %
11.08.2018 12:56 21,2 C 25,0 C 18,3 C 59 % 1020,7 hPa 0,0 l/m 0 min 0 min 296 W/m 11,3 km/h (2 Bft) 97,87 %
11.08.2018 12:58 21,2 C 22,2 C 18,3 C 58 % 1020,8 hPa 0,0 l/m 0 min 0 min 143 W/m 9,0 km/h (2 Bft) 97,87 %
11.08.2018 13:00 21,1 C 24,4 C 18,3 C 57 % 1020,8 hPa 0,0 l/m 0 min 0 min 317 W/m 6,8 km/h (2 Bft) 97,62 %
11.08.2018 13:02 21,2 C 26,1 C 18,9 C 58 % 1020,6 hPa 0,0 l/m 2 min 0 min 490 W/m 9,0 km/h (2 Bft) 95,74 %
11.08.2018 13:04 21,2 C 27,2 C 18,9 C 59 % 1020,7 hPa 0,0 l/m 2 min 0 min 515 W/m 6,8 km/h (2 Bft) 96,08 %
11.08.2018 13:06 21,3 C 28,3 C 18,9 C 58 % 1020,6 hPa 0,0 l/m 0 min 0 min 279 W/m 6,8 km/h (2 Bft) 95,74 %
11.08.2018 13:08 21,3 C 28,9 C 18,9 C 58 % 1020,7 hPa 0,0 l/m 0 min 0 min 274 W/m 9,0 km/h (2 Bft) 97,87 %
11.08.2018 13:10 21,4 C 27,8 C 19,4 C 57 % 1020,7 hPa 0,0 l/m 0 min 0 min 274 W/m 6,8 km/h (2 Bft) 95,74 %
11.08.2018 13:12 21,6 C 26,1 C 19,4 C 56 % 1020,5 hPa 0,0 l/m 0 min 0 min 274 W/m 11,3 km/h (2 Bft) 97,83 %
11.08.2018 13:14 21,6 C 23,3 C 19,4 C 55 % 1020,7 hPa 0,0 l/m 0 min 0 min 287 W/m 13,5 km/h (3 Bft) 97,87 %
11.08.2018 13:16 21,6 C 22,2 C 19,4 C 55 % 1020,7 hPa 0,0 l/m 0 min 0 min 283 W/m 6,8 km/h (2 Bft) 97,62 %
11.08.2018 13:18 21,6 C 22,8 C 19,4 C 55 % 1020,7 hPa 0,0 l/m 2 min 0 min 629 W/m 13,5 km/h (3 Bft) 97,87 %
11.08.2018 13:20 21,6 C 23,9 C 19,4 C 56 % 1020,7 hPa 0,0 l/m 2 min 0 min 872 W/m 6,8 km/h (2 Bft) 97,92 %
11.08.2018 13:22 21,7 C 23,3 C 19,4 C 55 % 1020,7 hPa 0,0 l/m 2 min 0 min 912 W/m 9,0 km/h (2 Bft) 97,92 %
11.08.2018 13:24 21,7 C 23,9 C 20,0 C 57 % 1020,7 hPa 0,0 l/m 2 min 0 min 910 W/m 11,3 km/h (2 Bft) 95,83 %
11.08.2018 13:26 21,8 C 23,3 C 19,4 C 55 % 1020,7 hPa 0,0 l/m 2 min 0 min 713 W/m 13,5 km/h (3 Bft) 97,87 %
11.08.2018 13:28 21,7 C 21,7 C 18,9 C 54 % 1020,8 hPa 0,0 l/m 0 min 0 min 263 W/m 15,8 km/h (3 Bft) 95,74 %
11.08.2018 13:30 21,7 C 21,7 C 18,9 C 55 % 1020,7 hPa 0,0 l/m 0 min 0 min 302 W/m 6,8 km/h (2 Bft) 95,74 %
11.08.2018 13:32 21,6 C 22,2 C 18,9 C 55 % 1020,7 hPa 0,0 l/m 2 min 0 min 651 W/m 11,3 km/h (2 Bft) 95,83 %
11.08.2018 13:34 21,6 C 22,8 C 19,4 C 55 % 1020,8 hPa 0,0 l/m 2 min 0 min 965 W/m 11,3 km/h (2 Bft) 97,87 %
11.08.2018 13:36 21,6 C 23,3 C 20,0 C 56 % 1020,8 hPa 0,0 l/m 2 min 0 min 968 W/m 11,3 km/h (2 Bft) 97,83 %
11.08.2018 13:38 21,7 C 22,8 C 20,0 C 56 % 1020,7 hPa 0,0 l/m 2 min 0 min 734 W/m 9,0 km/h (2 Bft) 93,62 %
11.08.2018 13:40 21,7 C 22,2 C 19,4 C 54 % 1020,7 hPa 0,0 l/m 0 min 0 min 265 W/m 6,8 km/h (2 Bft) 93,62 %
11.08.2018 13:42 21,6 C 21,7 C 18,9 C 54 % 1020,8 hPa 0,0 l/m 0 min 0 min 255 W/m 6,8 km/h (2 Bft) 97,87 %
11.08.2018 13:44 21,6 C 21,1 C 18,9 C 55 % 1020,7 hPa 0,0 l/m 0 min 0 min 242 W/m 6,8 km/h (2 Bft) 95,12 %
11.08.2018 13:46 21,5 C 21,1 C 18,9 C 55 % 1020,7 hPa 0,0 l/m 0 min 0 min 234 W/m 6,8 km/h (2 Bft) 95,83 %
11.08.2018 13:48 21,4 C 22,2 C 19,4 C 55 % 1020,7 hPa 0,0 l/m 2 min 0 min 651 W/m 11,3 km/h (2 Bft) 95,74 %
11.08.2018 13:50 21,4 C 22,2 C 19,4 C 57 % 1020,7 hPa 0,0 l/m 2 min 0 min 872 W/m 11,3 km/h (2 Bft) 95,83 %
11.08.2018 13:52 21,5 C 22,8 C 20,0 C 57 % 1020,8 hPa 0,0 l/m 2 min 0 min 878 W/m 6,8 km/h (2 Bft) 97,92 %
11.08.2018 13:54 21,6 C 22,2 C 20,0 C 56 % 1020,8 hPa 0,0 l/m 2 min 0 min 864 W/m 9,0 km/h (2 Bft) 93,75 %
11.08.2018 13:56 21,6 C 22,2 C 20,0 C 54 % 1020,8 hPa 0,0 l/m 2 min 0 min 886 W/m 9,0 km/h (2 Bft) 95,74 %
11.08.2018 13:58 21,6 C 22,2 C 20,0 C 55 % 1020,7 hPa 0,0 l/m 2 min 0 min 900 W/m 6,8 km/h (2 Bft) 95,74 %
11.08.2018 14:00 21,7 C 22,2 C 20,0 C 55 % 1020,7 hPa 0,0 l/m 2 min 0 min 742 W/m 9,0 km/h (2 Bft) 95,74 %
11.08.2018 14:02 21,7 C 21,7 C 19,4 C 54 % 1020,6 hPa 0,0 l/m 0 min 0 min 151 W/m 6,8 km/h (2 Bft) 93,62 %
11.08.2018 14:04 21,7 C 21,1 C 19,4 C 55 % 1020,7 hPa 0,0 l/m 0 min 0 min 133 W/m 6,8 km/h (2 Bft) 95,74 %
11.08.2018 14:06 21,6 C 21,1 C 19,4 C 54 % 1020,6 hPa 0,0 l/m 2 min 0 min 640 W/m 11,3 km/h (2 Bft) 93,75 %
11.08.2018 14:08 21,6 C 21,7 C 19,4 C 53 % 1020,7 hPa 0,0 l/m 2 min 0 min 908 W/m 15,8 km/h (3 Bft) 95,12 %
11.08.2018 14:10 21,6 C 21,7 C 19,4 C 53 % 1020,6 hPa 0,0 l/m 2 min 0 min 888 W/m 6,8 km/h (2 Bft) 93,62 %
11.08.2018 14:12 21,6 C 22,2 C 20,0 C 54 % 1020,6 hPa 0,0 l/m 2 min 0 min 829 W/m 6,8 km/h (2 Bft) 95,74 %
11.08.2018 14:14 21,7 C 22,2 C 20,0 C 55 % 1020,5 hPa 0,0 l/m 2 min 0 min 805 W/m 13,5 km/h (3 Bft) 93,75 %
11.08.2018 14:16 21,7 C 22,8 C 20,0 C 55 % 1020,5 hPa 0,0 l/m 2 min 0 min 853 W/m 6,8 km/h (2 Bft) 95,74 %
11.08.2018 14:18 21,7 C 22,8 C 20,0 C 54 % 1020,6 hPa 0,0 l/m 2 min 0 min 894 W/m 9,0 km/h (2 Bft) 95,83 %
11.08.2018 14:20 21,8 C 22,8 C 20,6 C 52 % 1020,6 hPa 0,0 l/m 2 min 0 min 891 W/m 11,3 km/h (2 Bft) 95,83 %
11.08.2018 14:22 21,8 C 22,8 C 20,6 C 52 % 1020,7 hPa 0,0 l/m 2 min 0 min 900 W/m 11,3 km/h (2 Bft) 97,92 %
11.08.2018 14:24 21,9 C 22,8 C 20,0 C 53 % 1020,5 hPa 0,0 l/m 2 min 0 min 896 W/m 11,3 km/h (2 Bft) 97,87 %
11.08.2018 14:26 21,9 C 22,2 C 20,0 C 52 % 1020,6 hPa 0,0 l/m 2 min 0 min 911 W/m 11,3 km/h (2 Bft) 97,87 %
11.08.2018 14:28 21,9 C 22,8 C 20,0 C 53 % 1020,6 hPa 0,0 l/m 2 min 0 min 929 W/m 9,0 km/h (2 Bft) 97,87 %
11.08.2018 14:30 22,0 C 22,2 C 20,0 C 53 % 1020,6 hPa 0,0 l/m 2 min 0 min 953 W/m 13,5 km/h (3 Bft) 97,87 %
11.08.2018 14:32 22,0 C 22,8 C 20,0 C 53 % 1020,6 hPa 0,0 l/m 2 min 0 min 942 W/m 9,0 km/h (2 Bft) 95,74 %
11.08.2018 14:34 22,1 C 22,2 C 20,0 C 52 % 1020,7 hPa 0,0 l/m 2 min 0 min 901 W/m 11,3 km/h (2 Bft) 97,83 %
11.08.2018 14:36 22,0 C 21,7 C 20,0 C 53 % 1020,7 hPa 0,0 l/m 2 min 0 min 394 W/m 9,0 km/h (2 Bft) 97,87 %
11.08.2018 14:38 21,9 C 21,7 C 19,4 C 53 % 1020,7 hPa 0,0 l/m 0 min 0 min 279 W/m 18,0 km/h (3 Bft) 97,87 %
11.08.2018 14:40 21,9 C 22,2 C 19,4 C 54 % 1020,6 hPa 0,0 l/m 2 min 0 min 909 W/m 15,8 km/h (3 Bft) 97,87 %
11.08.2018 14:42 21,9 C 22,2 C 20,0 C 54 % 1020,6 hPa 0,0 l/m 2 min 0 min 900 W/m 13,5 km/h (3 Bft) 93,62 %
11.08.2018 14:44 21,9 C 22,2 C 20,0 C 54 % 1020,7 hPa 0,0 l/m 2 min 0 min 870 W/m 11,3 km/h (2 Bft) 97,87 %
11.08.2018 14:46 21,9 C 22,2 C 20,0 C 55 % 1020,7 hPa 0,0 l/m 2 min 0 min 849 W/m 9,0 km/h (2 Bft) 97,56 %
11.08.2018 14:48 21,9 C 21,7 C 20,0 C 54 % 1020,7 hPa 0,0 l/m 0 min 0 min 304 W/m 11,3 km/h (2 Bft) 100,00 %
11.08.2018 14:50 21,9 C 21,1 C 19,4 C 54 % 1020,7 hPa 0,0 l/m 0 min 0 min 153 W/m 9,0 km/h (2 Bft) 97,92 %
11.08.2018 14:52 21,9 C 21,7 C 19,4 C 54 % 1020,7 hPa 0,0 l/m 2 min 0 min 610 W/m 11,3 km/h (2 Bft) 100,00 %
11.08.2018 14:54 21,9 C 22,2 C 20,0 C 54 % 1020,6 hPa 0,0 l/m 2 min 0 min 834 W/m 6,8 km/h (2 Bft) 100,00 %
11.08.2018 14:56 21,9 C 22,2 C 20,0 C 55 % 1020,5 hPa 0,0 l/m 2 min 0 min 841 W/m 4,5 km/h (1 Bft) 100,00 %
11.08.2018 14:58 21,9 C 22,2 C 20,0 C 55 % 1020,5 hPa 0,0 l/m 2 min 0 min 860 W/m 15,8 km/h (3 Bft) 100,00 %
11.08.2018 15:00 21,9 C 22,2 C 20,0 C 53 % 1020,5 hPa 0,0 l/m 0 min 0 min 330 W/m 9,0 km/h (2 Bft) 98,00 %
11.08.2018 15:02 21,9 C 22,2 C 20,0 C 54 % 1020,4 hPa 0,0 l/m 2 min 0 min 812 W/m 9,0 km/h (2 Bft) 100,00 %
11.08.2018 15:04 21,9 C 22,2 C 20,0 C 53 % 1020,6 hPa 0,0 l/m 2 min 0 min 859 W/m 6,8 km/h (2 Bft) 100,00 %
11.08.2018 15:06 21,9 C 22,2 C 20,0 C 53 % 1020,4 hPa 0,0 l/m 2 min 0 min 840 W/m 9,0 km/h (2 Bft) 100,00 %
11.08.2018 15:08 21,9 C 22,2 C 20,0 C 53 % 1020,3 hPa 0,0 l/m 2 min 0 min 836 W/m 6,8 km/h (2 Bft) 100,00 %
11.08.2018 15:10 21,9 C 22,8 C 20,6 C 54 % 1020,4 hPa 0,0 l/m 2 min 0 min 855 W/m 9,0 km/h (2 Bft) 100,00 %
11.08.2018 15:12 22,0 C 22,8 C 20,6 C 53 % 1020,3 hPa 0,0 l/m 2 min 0 min 866 W/m 13,5 km/h (3 Bft) 97,87 %
11.08.2018 15:14 22,0 C 22,8 C 20,6 C 52 % 1020,4 hPa 0,0 l/m 2 min 0 min 840 W/m 9,0 km/h (2 Bft) 100,00 %
11.08.2018 15:16 22,1 C 22,8 C 20,6 C 53 % 1020,4 hPa 0,0 l/m 2 min 0 min 829 W/m 6,8 km/h (2 Bft) 95,74 %
11.08.2018 15:18 22,1 C 22,8 C 20,6 C 53 % 1020,5 hPa 0,0 l/m 2 min 0 min 881 W/m 22,5 km/h (4 Bft) 100,00 %
11.08.2018 15:20 22,1 C 22,2 C 20,6 C 53 % 1020,4 hPa 0,0 l/m 0 min 0 min 252 W/m 22,5 km/h (4 Bft) 100,00 %
11.08.2018 15:22 22,1 C 22,2 C 20,0 C 53 % 1020,5 hPa 0,0 l/m 0 min 0 min 274 W/m 15,8 km/h (3 Bft) 97,62 %
11.08.2018 15:24 22,1 C 22,2 C 20,0 C 53 % 1020,4 hPa 0,0 l/m 0 min 0 min 272 W/m 6,8 km/h (2 Bft) 97,87 %
11.08.2018 15:26 22,1 C 21,7 C 20,0 C 52 % 1020,3 hPa 0,0 l/m 0 min 0 min 229 W/m 6,8 km/h (2 Bft) 95,74 %
11.08.2018 15:28 22,1 C 21,7 C 20,0 C 53 % 1020,4 hPa 0,0 l/m 0 min 0 min 244 W/m 6,8 km/h (2 Bft) 97,87 %
11.08.2018 15:30 22,1 C 22,2 C 20,0 C 53 % 1020,4 hPa 0,0 l/m 0 min 0 min 267 W/m 4,5 km/h (1 Bft) 97,87 %
11.08.2018 15:32 22,1 C 22,8 C 20,6 C 54 % 1020,4 hPa 0,0 l/m 2 min 0 min 916 W/m 13,5 km/h (3 Bft) 97,87 %
11.08.2018 15:34 22,1 C 22,8 C 20,6 C 53 % 1020,4 hPa 0,0 l/m 2 min 0 min 925 W/m 6,8 km/h (2 Bft) 97,96 %
11.08.2018 15:36 22,1 C 23,3 C 20,6 C 53 % 1020,4 hPa 0,0 l/m 2 min 0 min 885 W/m 15,8 km/h (3 Bft) 97,92 %
11.08.2018 15:38 22,2 C 23,3 C 21,1 C 53 % 1020,3 hPa 0,0 l/m 2 min 0 min 936 W/m 6,8 km/h (2 Bft) 97,87 %
11.08.2018 15:40 22,2 C 23,9 C 21,1 C 54 % 1020,4 hPa 0,0 l/m 2 min 0 min 910 W/m 6,8 km/h (2 Bft) 95,83 %
11.08.2018 15:42 22,3 C 23,9 C 21,1 C 53 % 1020,3 hPa 0,0 l/m 2 min 0 min 894 W/m 6,8 km/h (2 Bft) 97,87 %
11.08.2018 15:44 22,4 C 23,9 C 21,1 C 52 % 1020,2 hPa 0,0 l/m 2 min 0 min 547 W/m 11,3 km/h (2 Bft) 93,48 %
11.08.2018 15:46 22,4 C 23,9 C 21,1 C 53 % 1020,2 hPa 0,0 l/m 2 min 0 min 692 W/m 9,0 km/h (2 Bft) 97,87 %
11.08.2018 15:48 22,5 C 23,3 C 21,1 C 50 % 1020,2 hPa 0,0 l/m 2 min 0 min 893 W/m 13,5 km/h (3 Bft) 95,74 %
11.08.2018 15:50 22,6 C 23,3 C 21,1 C 51 % 1020,1 hPa 0,0 l/m 2 min 0 min 816 W/m 11,3 km/h (2 Bft) 97,56 %
11.08.2018 15:52 22,6 C 23,3 C 21,1 C 49 % 1020,2 hPa 0,0 l/m 2 min 0 min 814 W/m 6,8 km/h (2 Bft) 97,96 %
11.08.2018 15:54 22,6 C 23,3 C 20,6 C 48 % 1020,2 hPa 0,0 l/m 2 min 0 min 818 W/m 9,0 km/h (2 Bft) 97,92 %
11.08.2018 15:56 22,7 C 22,8 C 20,6 C 47 % 1020,2 hPa 0,0 l/m 2 min 0 min 802 W/m 11,3 km/h (2 Bft) 97,87 %
11.08.2018 15:58 22,7 C 23,3 C 20,6 C 48 % 1020,2 hPa 0,0 l/m 2 min 0 min 807 W/m 11,3 km/h (2 Bft) 97,87 %
11.08.2018 16:00 22,7 C 23,3 C 20,6 C 47 % 1020,3 hPa 0,0 l/m 2 min 0 min 790 W/m 6,8 km/h (2 Bft) 95,92 %
11.08.2018 16:02 22,7 C 22,8 C 20,6 C 48 % 1020,3 hPa 0,0 l/m 2 min 0 min 795 W/m 6,8 km/h (2 Bft) 95,74 %
11.08.2018 16:04 22,7 C 22,8 C 20,6 C 48 % 1020,3 hPa 0,0 l/m 2 min 0 min 795 W/m 6,8 km/h (2 Bft) 97,87 %
11.08.2018 16:06 22,7 C 22,2 C 20,6 C 48 % 1020,3 hPa 0,0 l/m 0 min 0 min 246 W/m 9,0 km/h (2 Bft) 100,00 %
11.08.2018 16:08 22,7 C 22,8 C 20,6 C 49 % 1020,3 hPa 0,0 l/m 2 min 0 min 566 W/m 9,0 km/h (2 Bft) 100,00 %
11.08.2018 16:10 22,7 C 23,3 C 20,6 C 48 % 1020,3 hPa 0,0 l/m 2 min 0 min 841 W/m 9,0 km/h (2 Bft) 97,87 %
11.08.2018 16:12 22,7 C 23,9 C 21,1 C 49 % 1020,2 hPa 0,0 l/m 2 min 0 min 818 W/m 6,8 km/h (2 Bft) 100,00 %
11.08.2018 16:14 22,7 C 23,9 C 21,1 C 49 % 1020,1 hPa 0,0 l/m 2 min 0 min 800 W/m 6,8 km/h (2 Bft) 97,87 %
11.08.2018 16:16 22,8 C 23,9 C 21,1 C 49 % 1020,1 hPa 0,0 l/m 2 min 0 min 808 W/m 6,8 km/h (2 Bft) 100,00 %
11.08.2018 16:18 22,8 C 25,0 C 21,1 C 50 % 1020,1 hPa 0,0 l/m 2 min 0 min 804 W/m 4,5 km/h (1 Bft) 97,92 %
11.08.2018 16:20 22,8 C 25,6 C 21,1 C 50 % 1020,0 hPa 0,0 l/m 2 min 0 min 799 W/m 11,3 km/h (2 Bft) 100,00 %
11.08.2018 16:22 22,9 C 25,6 C 21,1 C 47 % 1020,1 hPa 0,0 l/m 2 min 0 min 784 W/m 9,0 km/h (2 Bft) 100,00 %
11.08.2018 16:24 22,9 C 25,6 C 21,1 C 49 % 1020,1 hPa 0,0 l/m 2 min 0 min 803 W/m 9,0 km/h (2 Bft) 100,00 %
11.08.2018 16:26 22,9 C 24,4 C 21,1 C 49 % 1020,1 hPa 0,0 l/m 2 min 0 min 433 W/m 6,8 km/h (2 Bft) 97,87 %
11.08.2018 16:28 22,9 C 23,3 C 21,1 C 48 % 1020,1 hPa 0,0 l/m 0 min 0 min 234 W/m 9,0 km/h (2 Bft) 100,00 %
11.08.2018 16:30 22,9 C 23,3 C 21,1 C 49 % 1020,1 hPa 0,0 l/m 0 min 0 min 244 W/m 6,8 km/h (2 Bft) 100,00 %
11.08.2018 16:32 22,9 C 23,3 C 20,6 C 49 % 1020,0 hPa 0,0 l/m 2 min 0 min 633 W/m 13,5 km/h (3 Bft) 100,00 %
11.08.2018 16:34 22,9 C 23,9 C 21,1 C 49 % 1020,1 hPa 0,0 l/m 2 min 0 min 821 W/m 6,8 km/h (2 Bft) 97,87 %
11.08.2018 16:36 22,9 C 25,0 C 21,1 C 48 % 1020,1 hPa 0,0 l/m 2 min 0 min 801 W/m 9,0 km/h (2 Bft) 97,92 %
11.08.2018 16:38 23,0 C 25,0 C 21,1 C 49 % 1020,2 hPa 0,0 l/m 2 min 0 min 794 W/m 9,0 km/h (2 Bft) 95,74 %
11.08.2018 16:40 23,0 C 25,0 C 21,1 C 48 % 1020,2 hPa 0,0 l/m 2 min 0 min 768 W/m 9,0 km/h (2 Bft) 97,87 %
11.08.2018 16:42 23,0 C 25,6 C 21,1 C 47 % 1020,1 hPa 0,0 l/m 2 min 0 min 767 W/m 6,8 km/h (2 Bft) 95,65 %
11.08.2018 16:44 23,1 C 25,6 C 21,1 C 48 % 1020,0 hPa 0,0 l/m 2 min 0 min 777 W/m 6,8 km/h (2 Bft) 97,87 %
11.08.2018 16:46 23,1 C 26,1 C 21,1 C 50 % 1020,0 hPa 0,0 l/m 2 min 0 min 769 W/m 9,0 km/h (2 Bft) 95,74 %
11.08.2018 16:48 23,1 C 26,1 C 21,7 C 49 % 1020,0 hPa 0,0 l/m 2 min 0 min 773 W/m 9,0 km/h (2 Bft) 97,87 %
11.08.2018 16:50 23,2 C 26,1 C 21,7 C 47 % 1020,0 hPa 0,0 l/m 2 min 0 min 753 W/m 6,8 km/h (2 Bft) 97,87 %
11.08.2018 16:52 23,2 C 26,1 C 21,7 C 49 % 1020,0 hPa 0,0 l/m 2 min 0 min 702 W/m 6,8 km/h (2 Bft) 97,87 %
11.08.2018 16:54 23,3 C 25,6 C 21,7 C 47 % 1020,1 hPa 0,0 l/m 2 min 0 min 695 W/m 11,3 km/h (2 Bft) 95,65 %
11.08.2018 16:56 23,3 C 26,1 C 21,7 C 47 % 1020,1 hPa 0,0 l/m 2 min 0 min 690 W/m 9,0 km/h (2 Bft) 95,74 %
11.08.2018 16:58 23,3 C 25,0 C 21,7 C 47 % 1020,0 hPa 0,0 l/m 2 min 0 min 703 W/m 11,3 km/h (2 Bft) 97,87 %
11.08.2018 17:00 23,3 C 24,4 C 21,1 C 47 % 1019,9 hPa 0,0 l/m 2 min 0 min 708 W/m 13,5 km/h (3 Bft) 97,87 %
11.08.2018 17:02 23,3 C 25,0 C 21,7 C 47 % 1019,9 hPa 0,0 l/m 2 min 0 min 710 W/m 9,0 km/h (2 Bft) 95,74 %
11.08.2018 17:04 23,3 C 24,4 C 21,7 C 47 % 1019,9 hPa 0,0 l/m 2 min 0 min 672 W/m 11,3 km/h (2 Bft) 95,74 %
11.08.2018 17:06 23,3 C 23,3 C 21,1 C 47 % 1020,0 hPa 0,0 l/m 2 min 0 min 424 W/m 9,0 km/h (2 Bft) 95,65 %
11.08.2018 17:08 23,3 C 22,8 C 21,1 C 47 % 1020,0 hPa 0,0 l/m 0 min 0 min 208 W/m 9,0 km/h (2 Bft) 95,24 %
11.08.2018 17:10 23,3 C 22,2 C 20,6 C 47 % 1019,9 hPa 0,0 l/m 0 min 0 min 205 W/m 4,5 km/h (1 Bft) 95,83 %
11.08.2018 17:12 23,2 C 22,8 C 20,6 C 47 % 1019,9 hPa 0,0 l/m 0 min 0 min 238 W/m 11,3 km/h (2 Bft) 95,65 %
11.08.2018 17:14 23,1 C 22,8 C 20,6 C 46 % 1019,9 hPa 0,0 l/m 2 min 0 min 417 W/m 6,8 km/h (2 Bft) 95,74 %
11.08.2018 17:16 23,1 C 23,3 C 20,6 C 47 % 1019,8 hPa 0,0 l/m 2 min 0 min 493 W/m 11,3 km/h (2 Bft) 95,74 %
11.08.2018 17:18 23,1 C 23,3 C 21,1 C 49 % 1019,9 hPa 0,0 l/m 2 min 0 min 630 W/m 11,3 km/h (2 Bft) 95,83 %
11.08.2018 17:20 23,1 C 23,3 C 21,1 C 47 % 1019,8 hPa 0,0 l/m 2 min 0 min 605 W/m 9,0 km/h (2 Bft) 97,92 %
11.08.2018 17:22 23,0 C 23,3 C 21,1 C 47 % 1019,8 hPa 0,0 l/m 2 min 0 min 583 W/m 6,8 km/h (2 Bft) 93,48 %
11.08.2018 17:24 23,0 C 23,3 C 21,1 C 46 % 1020,1 hPa 0,0 l/m 2 min 0 min 503 W/m 6,8 km/h (2 Bft) 95,74 %
11.08.2018 17:26 23,0 C 22,8 C 21,1 C 48 % 1019,9 hPa 0,0 l/m 2 min 0 min 480 W/m 9,0 km/h (2 Bft) 95,83 %
11.08.2018 17:28 22,9 C 22,2 C 20,6 C 48 % 1019,9 hPa 0,0 l/m 0 min 0 min 151 W/m 11,3 km/h (2 Bft) 91,49 %
11.08.2018 17:30 22,9 C 21,7 C 20,6 C 49 % 1019,9 hPa 0,0 l/m 0 min 0 min 107 W/m 6,8 km/h (2 Bft) 97,92 %
11.08.2018 17:32 22,8 C 21,7 C 20,0 C 49 % 1019,9 hPa 0,0 l/m 0 min 0 min 110 W/m 9,0 km/h (2 Bft) 95,74 %
11.08.2018 17:34 22,8 C 22,2 C 20,0 C 49 % 1019,9 hPa 0,0 l/m 0 min 0 min 157 W/m 9,0 km/h (2 Bft) 97,87 %
11.08.2018 17:36 22,7 C 22,2 C 20,6 C 49 % 1019,9 hPa 0,0 l/m 2 min 0 min 583 W/m 6,8 km/h (2 Bft) 95,83 %
11.08.2018 17:38 22,7 C 22,8 C 20,6 C 49 % 1019,9 hPa 0,0 l/m 2 min 0 min 364 W/m 13,5 km/h (3 Bft) 97,87 %
11.08.2018 17:40 22,6 C 22,8 C 20,6 C 49 % 1019,9 hPa 0,0 l/m 2 min 0 min 563 W/m 13,5 km/h (3 Bft) 97,83 %
11.08.2018 17:42 22,6 C 22,8 C 20,6 C 49 % 1019,9 hPa 0,0 l/m 2 min 0 min 595 W/m 11,3 km/h (2 Bft) 97,87 %
11.08.2018 17:44 22,6 C 22,8 C 20,6 C 49 % 1019,9 hPa 0,0 l/m 2 min 0 min 246 W/m 11,3 km/h (2 Bft) 97,67 %
11.08.2018 17:46 22,6 C 22,2 C 20,6 C 49 % 1019,9 hPa 0,0 l/m 0 min 0 min 121 W/m 6,8 km/h (2 Bft) 95,74 %
11.08.2018 17:48 22,5 C 21,7 C 20,0 C 49 % 1019,9 hPa 0,0 l/m 0 min 0 min 109 W/m 9,0 km/h (2 Bft) 95,74 %
11.08.2018 17:50 22,4 C 21,1 C 20,0 C 50 % 1019,8 hPa 0,0 l/m 0 min 0 min 126 W/m 6,8 km/h (2 Bft) 95,83 %
11.08.2018 17:52 22,4 C 21,7 C 20,0 C 51 % 1019,8 hPa 0,0 l/m 0 min 0 min 154 W/m 9,0 km/h (2 Bft) 95,74 %
11.08.2018 17:54 22,3 C 21,7 C 20,0 C 51 % 1019,8 hPa 0,0 l/m 0 min 0 min 169 W/m 6,8 km/h (2 Bft) 95,83 %
11.08.2018 17:56 22,3 C 21,7 C 20,0 C 50 % 1019,9 hPa 0,0 l/m 2 min 0 min 320 W/m 9,0 km/h (2 Bft) 95,74 %
11.08.2018 17:58 22,3 C 22,2 C 20,6 C 50 % 1019,9 hPa 0,0 l/m 2 min 0 min 568 W/m 15,8 km/h (3 Bft) 93,48 %
11.08.2018 18:00 22,2 C 22,8 C 20,6 C 50 % 1019,9 hPa 0,0 l/m 2 min 0 min 505 W/m 13,5 km/h (3 Bft) 93,88 %
11.08.2018 18:02 22,2 C 22,8 C 20,6 C 50 % 1019,8 hPa 0,0 l/m 2 min 0 min 470 W/m 6,8 km/h (2 Bft) 93,62 %
11.08.2018 18:04 22,2 C 22,2 C 20,6 C 50 % 1019,8 hPa 0,0 l/m 0 min 0 min 185 W/m 9,0 km/h (2 Bft) 95,24 %
11.08.2018 18:06 22,2 C 22,2 C 20,0 C 50 % 1019,8 hPa 0,0 l/m 0 min 0 min 152 W/m 11,3 km/h (2 Bft) 97,87 %
11.08.2018 18:08 22,2 C 21,7 C 20,0 C 49 % 1019,8 hPa 0,0 l/m 0 min 0 min 142 W/m 6,8 km/h (2 Bft) 97,87 %
11.08.2018 18:10 22,1 C 21,1 C 20,0 C 49 % 1019,8 hPa 0,0 l/m 0 min 0 min 115 W/m 6,8 km/h (2 Bft) 97,83 %
11.08.2018 18:12 22,1 C 21,1 C 20,0 C 50 % 1019,8 hPa 0,0 l/m 0 min 0 min 176 W/m 6,8 km/h (2 Bft) 95,92 %
11.08.2018 18:14 22,1 C 21,7 C 20,0 C 50 % 1019,8 hPa 0,0 l/m 2 min 0 min 384 W/m 6,8 km/h (2 Bft) 97,92 %
11.08.2018 18:16 22,0 C 21,7 C 20,0 C 49 % 1019,7 hPa 0,0 l/m 2 min 0 min 393 W/m 6,8 km/h (2 Bft) 95,83 %
11.08.2018 18:18 22,0 C 22,2 C 20,6 C 50 % 1019,8 hPa 0,0 l/m 2 min 0 min 416 W/m 6,8 km/h (2 Bft) 97,87 %
11.08.2018 18:20 22,0 C 22,2 C 20,6 C 50 % 1019,7 hPa 0,0 l/m 2 min 0 min 371 W/m 4,5 km/h (1 Bft) 97,87 %
11.08.2018 18:22 22,0 C 22,8 C 20,6 C 50 % 1019,7 hPa 0,0 l/m 2 min 0 min 311 W/m 6,8 km/h (2 Bft) 97,87 %
11.08.2018 18:24 22,1 C 22,2 C 20,6 C 50 % 1019,7 hPa 0,0 l/m 2 min 0 min 196 W/m 9,0 km/h (2 Bft) 97,87 %
11.08.2018 18:26 22,1 C 22,2 C 20,6 C 51 % 1019,8 hPa 0,0 l/m 2 min 0 min 191 W/m 4,5 km/h (1 Bft) 97,87 %
11.08.2018 18:28 22,1 C 22,2 C 20,6 C 50 % 1019,8 hPa 0,0 l/m 0 min 0 min 133 W/m 4,5 km/h (1 Bft) 97,83 %
11.08.2018 18:30 22,1 C 21,7 C 20,6 C 50 % 1019,8 hPa 0,0 l/m 0 min 0 min 113 W/m 4,5 km/h (1 Bft) 100,00 %
11.08.2018 18:32 22,1 C 21,7 C 20,6 C 50 % 1019,8 hPa 0,0 l/m 0 min 0 min 108 W/m 6,8 km/h (2 Bft) 100,00 %
11.08.2018 18:34 22,1 C 21,1 C 20,0 C 49 % 1019,8 hPa 0,0 l/m 0 min 0 min 98 W/m 4,5 km/h (1 Bft) 97,87 %
11.08.2018 18:36 22,1 C 21,1 C 20,0 C 50 % 1019,8 hPa 0,0 l/m 0 min 0 min 91 W/m 2,3 km/h (1 Bft) 100,00 %
11.08.2018 18:38 22,0 C 20,6 C 20,0 C 50 % 1019,8 hPa 0,0 l/m 0 min 0 min 83 W/m 6,8 km/h (2 Bft) 100,00 %
11.08.2018 18:40 21,9 C 20,6 C 20,0 C 50 % 1019,8 hPa 0,0 l/m 0 min 0 min 80 W/m 6,8 km/h (2 Bft) 100,00 %
11.08.2018 18:42 21,9 C 20,6 C 20,0 C 49 % 1019,9 hPa 0,0 l/m 0 min 0 min 84 W/m 6,8 km/h (2 Bft) 97,87 %
11.08.2018 18:44 21,9 C 20,6 C 19,4 C 50 % 1019,8 hPa 0,0 l/m 0 min 0 min 91 W/m 4,5 km/h (1 Bft) 100,00 %
11.08.2018 18:46 21,8 C 20,6 C 19,4 C 50 % 1019,8 hPa 0,0 l/m 0 min 0 min 112 W/m 4,5 km/h (1 Bft) 100,00 %
11.08.2018 18:48 21,8 C 20,6 C 19,4 C 50 % 1019,9 hPa 0,0 l/m 2 min 0 min 171 W/m 6,8 km/h (2 Bft) 100,00 %
11.08.2018 18:50 21,7 C 21,1 C 19,4 C 50 % 1019,9 hPa 0,0 l/m 2 min 0 min 178 W/m 4,5 km/h (1 Bft) 100,00 %
11.08.2018 18:52 21,7 C 21,1 C 20,0 C 50 % 1019,9 hPa 0,0 l/m 2 min 0 min 160 W/m 2,3 km/h (1 Bft) 100,00 %
11.08.2018 18:54 21,7 C 21,1 C 20,0 C 51 % 1019,8 hPa 0,0 l/m 0 min 0 min 148 W/m 4,5 km/h (1 Bft) 100,00 %
11.08.2018 18:56 21,7 C 21,7 C 20,0 C 51 % 1019,8 hPa 0,0 l/m 0 min 0 min 139 W/m 6,8 km/h (2 Bft) 100,00 %
11.08.2018 18:58 21,7 C 21,7 C 20,0 C 51 % 1019,8 hPa 0,0 l/m 0 min 0 min 135 W/m 4,5 km/h (1 Bft) 100,00 %
11.08.2018 19:00 21,6 C 21,7 C 20,0 C 51 % 1019,9 hPa 0,0 l/m 0 min 0 min 138 W/m 4,5 km/h (1 Bft) 100,00 %
11.08.2018 19:02 21,6 C 21,7 C 20,0 C 51 % 1019,8 hPa 0,0 l/m 0 min 0 min 134 W/m 4,5 km/h (1 Bft) 100,00 %
11.08.2018 19:04 21,6 C 21,1 C 20,0 C 51 % 1019,8 hPa 0,0 l/m 0 min 0 min 120 W/m 2,3 km/h (1 Bft) 100,00 %
11.08.2018 19:06 21,6 C 21,1 C 20,0 C 51 % 1019,8 hPa 0,0 l/m 0 min 0 min 103 W/m 6,8 km/h (2 Bft) 100,00 %
11.08.2018 19:08 21,6 C 21,1 C 20,0 C 51 % 1019,8 hPa 0,0 l/m 0 min 0 min 90 W/m 6,8 km/h (2 Bft) 100,00 %
11.08.2018 19:10 21,6 C 20,6 C 20,0 C 52 % 1019,7 hPa 0,0 l/m 0 min 0 min 83 W/m 6,8 km/h (2 Bft) 100,00 %
11.08.2018 19:12 21,5 C 20,6 C 20,0 C 52 % 1019,8 hPa 0,0 l/m 0 min 0 min 81 W/m 6,8 km/h (2 Bft) 100,00 %
11.08.2018 19:14 21,5 C 20,6 C 20,0 C 51 % 1019,8 hPa 0,0 l/m 0 min 0 min 78 W/m 6,8 km/h (2 Bft) 100,00 %
11.08.2018 19:16 21,4 C 20,6 C 19,4 C 51 % 1019,7 hPa 0,0 l/m 0 min 0 min 77 W/m 9,0 km/h (2 Bft) 100,00 %
11.08.2018 19:18 21,4 C 20,6 C 20,0 C 51 % 1019,7 hPa 0,0 l/m 0 min 0 min 76 W/m 4,5 km/h (1 Bft) 97,87 %
11.08.2018 19:20 21,4 C 20,6 C 19,4 C 52 % 1019,7 hPa 0,0 l/m 0 min 0 min 77 W/m 4,5 km/h (1 Bft) 100,00 %
11.08.2018 19:22 21,4 C 20,6 C 19,4 C 52 % 1019,7 hPa 0,0 l/m 0 min 0 min 80 W/m 4,5 km/h (1 Bft) 100,00 %
11.08.2018 19:24 21,4 C 20,6 C 19,4 C 53 % 1019,7 hPa 0,0 l/m 0 min 0 min 84 W/m 6,8 km/h (2 Bft) 100,00 %
11.08.2018 19:26 21,3 C 20,6 C 19,4 C 53 % 1019,6 hPa 0,0 l/m 0 min 0 min 85 W/m 9,0 km/h (2 Bft) 97,87 %
11.08.2018 19:28 21,3 C 20,6 C 19,4 C 53 % 1019,7 hPa 0,0 l/m 0 min 0 min 82 W/m 2,3 km/h (1 Bft) 97,87 %
11.08.2018 19:30 21,3 C 20,6 C 19,4 C 53 % 1019,7 hPa 0,0 l/m 0 min 0 min 79 W/m 11,3 km/h (2 Bft) 100,00 %
11.08.2018 19:32 21,3 C 20,6 C 19,4 C 52 % 1019,7 hPa 0,0 l/m 0 min 0 min 77 W/m 9,0 km/h (2 Bft) 100,00 %
11.08.2018 19:34 21,2 C 20,0 C 19,4 C 52 % 1019,6 hPa 0,0 l/m 0 min 0 min 74 W/m 4,5 km/h (1 Bft) 100,00 %
11.08.2018 19:36 21,2 C 20,0 C 19,4 C 53 % 1019,6 hPa 0,0 l/m 0 min 0 min 72 W/m 6,8 km/h (2 Bft) 100,00 %
11.08.2018 19:38 21,2 C 20,0 C 19,4 C 52 % 1019,6 hPa 0,0 l/m 0 min 0 min 70 W/m 6,8 km/h (2 Bft) 100,00 %
11.08.2018 19:40 21,1 C 20,0 C 19,4 C 53 % 1019,6 hPa 0,0 l/m 0 min 0 min 69 W/m 6,8 km/h (2 Bft) 97,87 %
11.08.2018 19:42 21,1 C 20,0 C 19,4 C 53 % 1019,6 hPa 0,0 l/m 0 min 0 min 67 W/m 4,5 km/h (1 Bft) 97,87 %
11.08.2018 19:44 21,1 C 20,0 C 19,4 C 53 % 1019,6 hPa 0,0 l/m 0 min 0 min 63 W/m 6,8 km/h (2 Bft) 100,00 %
11.08.2018 19:46 21,0 C 20,0 C 19,4 C 53 % 1019,6 hPa 0,0 l/m 0 min 0 min 59 W/m 6,8 km/h (2 Bft) 97,87 %
11.08.2018 19:48 21,0 C 20,0 C 19,4 C 53 % 1019,6 hPa 0,0 l/m 0 min 0 min 56 W/m 4,5 km/h (1 Bft) 97,83 %
11.08.2018 19:50 20,9 C 20,0 C 19,4 C 52 % 1019,5 hPa 0,0 l/m 0 min 0 min 57 W/m 4,5 km/h (1 Bft) 97,62 %
11.08.2018 19:52 20,9 C 20,0 C 19,4 C 53 % 1019,6 hPa 0,0 l/m 0 min 0 min 58 W/m 4,5 km/h (1 Bft) 97,92 %
11.08.2018 19:54 20,8 C 20,0 C 18,9 C 53 % 1019,6 hPa 0,0 l/m 0 min 0 min 56 W/m 4,5 km/h (1 Bft) 95,65 %
11.08.2018 19:56 20,8 C 19,4 C 18,9 C 54 % 1019,6 hPa 0,0 l/m 0 min 0 min 54 W/m 4,5 km/h (1 Bft) 97,87 %
11.08.2018 19:58 20,8 C 19,4 C 18,9 C 53 % 1019,6 hPa 0,0 l/m 0 min 0 min 51 W/m 6,8 km/h (2 Bft) 95,74 %
11.08.2018 20:00 20,8 C 19,4 C 18,9 C 54 % 1019,6 hPa 0,0 l/m 0 min 0 min 49 W/m 4,5 km/h (1 Bft) 95,74 %
11.08.2018 20:02 20,7 C 19,4 C 18,9 C 54 % 1019,5 hPa 0,0 l/m 0 min 0 min 47 W/m 4,5 km/h (1 Bft) 94,00 %
11.08.2018 20:04 20,7 C 19,4 C 18,9 C 54 % 1019,5 hPa 0,0 l/m 0 min 0 min 45 W/m 4,5 km/h (1 Bft) 97,96 %
11.08.2018 20:06 20,7 C 19,4 C 18,9 C 55 % 1019,5 hPa 0,0 l/m 0 min 0 min 44 W/m 2,3 km/h (1 Bft) 95,74 %
11.08.2018 20:08 20,7 C 19,4 C 18,9 C 55 % 1019,5 hPa 0,0 l/m 0 min 0 min 42 W/m 4,5 km/h (1 Bft) 93,62 %
11.08.2018 20:10 20,6 C 19,4 C 18,9 C 55 % 1019,5 hPa 0,0 l/m 0 min 0 min 39 W/m 6,8 km/h (2 Bft) 93,62 %
11.08.2018 20:12 20,6 C 19,4 C 18,9 C 55 % 1019,5 hPa 0,0 l/m 0 min 0 min 38 W/m 4,5 km/h (1 Bft) 97,87 %
11.08.2018 20:14 20,6 C 18,9 C 18,9 C 55 % 1019,5 hPa 0,0 l/m 0 min 0 min 34 W/m 6,8 km/h (2 Bft) 95,74 %
11.08.2018 20:16 20,5 C 18,9 C 18,9 C 55 % 1019,5 hPa 0,0 l/m 0 min 0 min 32 W/m 2,3 km/h (1 Bft) 97,83 %
11.08.2018 20:18 20,4 C 18,9 C 18,9 C 55 % 1019,4 hPa 0,0 l/m 0 min 0 min 30 W/m 0,0 km/h (0 Bft) 93,62 %
11.08.2018 20:20 20,4 C 18,9 C 18,3 C 55 % 1019,4 hPa 0,0 l/m 0 min 0 min 28 W/m 2,3 km/h (1 Bft) 93,75 %
11.08.2018 20:22 20,4 C 18,9 C 18,3 C 54 % 1019,4 hPa 0,0 l/m 0 min 0 min 26 W/m 4,5 km/h (1 Bft) 93,62 %
11.08.2018 20:24 20,3 C 18,9 C 18,3 C 55 % 1019,4 hPa 0,0 l/m 0 min 0 min 23 W/m 4,5 km/h (1 Bft) 93,48 %
11.08.2018 20:26 20,3 C 18,9 C 18,3 C 56 % 1019,4 hPa 0,0 l/m 0 min 0 min 21 W/m 4,5 km/h (1 Bft) 91,67 %
11.08.2018 20:28 20,2 C 18,3 C 18,3 C 56 % 1019,4 hPa 0,0 l/m 0 min 0 min 20 W/m 4,5 km/h (1 Bft) 93,10 %
11.08.2018 20:30 20,2 C 18,3 C 18,3 C 56 % 1019,4 hPa 0,0 l/m 0 min 0 min 21 W/m 2,3 km/h (1 Bft) 91,49 %
11.08.2018 20:32 20,2 C 18,3 C 18,3 C 56 % 1019,4 hPa 0,0 l/m 0 min 0 min 21 W/m 4,5 km/h (1 Bft) 88,57 %
11.08.2018 20:34 20,1 C 18,3 C 18,3 C 56 % 1019,4 hPa 0,0 l/m 0 min 0 min 19 W/m 2,3 km/h (1 Bft) 94,23 %
11.08.2018 20:36 20,1 C 18,3 C 17,8 C 56 % 1019,4 hPa 0,0 l/m 0 min 0 min 19 W/m 4,5 km/h (1 Bft) 93,75 %
11.08.2018 20:38 20,0 C 18,3 C 17,8 C 57 % 1019,4 hPa 0,0 l/m 0 min 0 min 18 W/m 0,0 km/h (0 Bft) 95,83 %
11.08.2018 20:40 20,0 C 18,3 C 17,8 C 57 % 1019,4 hPa 0,0 l/m 0 min 0 min 18 W/m 4,5 km/h (1 Bft) 95,74 %
11.08.2018 20:42 19,9 C 17,8 C 17,8 C 58 % 1019,5 hPa 0,0 l/m 0 min 0 min 16 W/m 2,3 km/h (1 Bft) 93,75 %
11.08.2018 20:44 19,9 C 17,8 C 17,2 C 58 % 1019,5 hPa 0,0 l/m 0 min 0 min 15 W/m 2,3 km/h (1 Bft) 93,62 %
11.08.2018 20:46 19,8 C 17,8 C 17,2 C 59 % 1019,5 hPa 0,0 l/m 0 min 0 min 14 W/m 0,0 km/h (0 Bft) 93,62 %
11.08.2018 20:48 19,8 C 17,8 C 17,2 C 59 % 1019,4 hPa 0,0 l/m 0 min 0 min 13 W/m 0,0 km/h (0 Bft) 95,74 %
11.08.2018 20:50 19,7 C 17,8 C 17,2 C 59 % 1019,4 hPa 0,0 l/m 0 min 0 min 12 W/m 0,0 km/h (0 Bft) 95,74 %
11.08.2018 20:52 19,7 C 17,8 C 17,2 C 59 % 1019,5 hPa 0,0 l/m 0 min 0 min 12 W/m 0,0 km/h (0 Bft) 91,30 %
11.08.2018 20:54 19,6 C 17,8 C 17,2 C 59 % 1019,5 hPa 0,0 l/m 0 min 0 min 11 W/m 0,0 km/h (0 Bft) 95,74 %
11.08.2018 20:56 19,6 C 17,8 C 16,7 C 59 % 1019,5 hPa 0,0 l/m 0 min 0 min 10 W/m 0,0 km/h (0 Bft) 93,62 %
11.08.2018 20:58 19,5 C 17,2 C 16,7 C 61 % 1019,5 hPa 0,0 l/m 0 min 0 min 9 W/m 0,0 km/h (0 Bft) 93,62 %
11.08.2018 21:00 19,4 C 17,2 C 16,7 C 61 % 1019,5 hPa 0,0 l/m 0 min 0 min 7 W/m 0,0 km/h (0 Bft) 93,62 %
11.08.2018 21:02 19,4 C 17,2 C 16,7 C 61 % 1019,4 hPa 0,0 l/m 0 min 0 min 7 W/m 0,0 km/h (0 Bft) 97,87 %
11.08.2018 21:04 19,3 C 16,7 C 16,7 C 61 % 1019,4 hPa 0,0 l/m 0 min 0 min 6 W/m 0,0 km/h (0 Bft) 97,83 %
11.08.2018 21:06 19,2 C 16,7 C 16,7 C 60 % 1019,4 hPa 0,0 l/m 0 min 0 min 5 W/m 0,0 km/h (0 Bft) 95,74 %
11.08.2018 21:08 19,2 C 16,7 C 16,7 C 61 % 1019,4 hPa 0,0 l/m 0 min 0 min 4 W/m 0,0 km/h (0 Bft) 97,87 %
11.08.2018 21:10 19,1 C 16,7 C 16,1 C 61 % 1019,4 hPa 0,0 l/m 0 min 0 min 0 W/m 0,0 km/h (0 Bft) 100,00 %
11.08.2018 21:12 19,0 C 16,7 C 16,1 C 62 % 1019,4 hPa 0,0 l/m 0 min 0 min 0 W/m 0,0 km/h (0 Bft) 100,00 %
11.08.2018 21:14 18,9 C 16,7 C 16,1 C 62 % 1019,4 hPa 0,0 l/m 0 min 0 min 0 W/m 0,0 km/h (0 Bft) 97,87 %
11.08.2018 21:16 18,9 C 16,7 C 16,1 C 62 % 1019,5 hPa 0,0 l/m 0 min 0 min 0 W/m 0,0 km/h (0 Bft) 100,00 %
11.08.2018 21:18 18,8 C 16,7 C 16,1 C 63 % 1019,5 hPa 0,0 l/m 0 min 0 min 0 W/m 0,0 km/h (0 Bft) 97,87 %
11.08.2018 21:20 18,7 C 16,1 C 16,1 C 63 % 1019,6 hPa 0,0 l/m 0 min 0 min 0 W/m 0,0 km/h (0 Bft) 100,00 %
11.08.2018 21:22 18,6 C 16,1 C 16,1 C 63 % 1019,6 hPa 0,0 l/m 0 min 0 min 0 W/m 0,0 km/h (0 Bft) 100,00 %
11.08.2018 21:24 18,6 C 16,1 C 16,1 C 63 % 1019,6 hPa 0,0 l/m 0 min 0 min 0 W/m 0,0 km/h (0 Bft) 97,87 %
11.08.2018 21:26 18,4 C 16,1 C 16,1 C 63 % 1019,6 hPa 0,0 l/m 0 min 0 min 0 W/m 0,0 km/h (0 Bft) 100,00 %
11.08.2018 21:28 18,4 C 16,1 C 15,6 C 63 % 1019,6 hPa 0,0 l/m 0 min 0 min 0 W/m 0,0 km/h (0 Bft) 100,00 %
11.08.2018 21:30 18,3 C 16,1 C 15,6 C 63 % 1019,5 hPa 0,0 l/m 0 min 0 min 0 W/m 0,0 km/h (0 Bft) 100,00 %
11.08.2018 21:32 18,2 C 16,1 C 15,6 C 64 % 1019,5 hPa 0,0 l/m 0 min 0 min 0 W/m 0,0 km/h (0 Bft) 100,00 %
11.08.2018 21:34 18,2 C 15,6 C 15,6 C 65 % 1019,5 hPa 0,0 l/m 0 min 0 min 0 W/m 0,0 km/h (0 Bft) 100,00 %
11.08.2018 21:36 18,1 C 15,6 C 15,6 C 65 % 1019,5 hPa 0,0 l/m 0 min 0 min 0 W/m 0,0 km/h (0 Bft) 100,00 %
11.08.2018 21:38 18,0 C 15,6 C 15,6 C 65 % 1019,5 hPa 0,0 l/m 0 min 0 min 0 W/m 0,0 km/h (0 Bft) 100,00 %
11.08.2018 21:40 17,9 C 15,6 C 15,6 C 66 % 1019,5 hPa 0,0 l/m 0 min 0 min 0 W/m 0,0 km/h (0 Bft) 97,87 %
11.08.2018 21:42 17,9 C 15,6 C 15,6 C 66 % 1019,5 hPa 0,0 l/m 0 min 0 min 0 W/m 0,0 km/h (0 Bft) 100,00 %
11.08.2018 21:44 17,8 C 15,6 C 15,6 C 66 % 1019,5 hPa 0,0 l/m 0 min 0 min 0 W/m 0,0 km/h (0 Bft) 100,00 %
11.08.2018 21:46 17,7 C 15,6 C 15,0 C 67 % 1019,5 hPa 0,0 l/m 0 min 0 min 0 W/m 0,0 km/h (0 Bft) 100,00 %
11.08.2018 21:48 17,7 C 15,6 C 15,0 C 67 % 1019,5 hPa 0,0 l/m 0 min 0 min 0 W/m 0,0 km/h (0 Bft) 100,00 %
11.08.2018 21:50 17,6 C 15,6 C 15,0 C 67 % 1019,4 hPa 0,0 l/m 0 min 0 min 0 W/m 0,0 km/h (0 Bft) 100,00 %
11.08.2018 21:52 17,5 C 15,6 C 15,0 C 67 % 1019,4 hPa 0,0 l/m 0 min 0 min 0 W/m 0,0 km/h (0 Bft) 100,00 %
11.08.2018 21:54 17,5 C 15,6 C 15,0 C 67 % 1019,4 hPa 0,0 l/m 0 min 0 min 0 W/m 0,0 km/h (0 Bft) 100,00 %
11.08.2018 21:56 17,4 C 15,6 C 15,0 C 67 % 1019,4 hPa 0,0 l/m 0 min 0 min 0 W/m 0,0 km/h (0 Bft) 100,00 %
11.08.2018 21:58 17,3 C 15,0 C 15,0 C 68 % 1019,4 hPa 0,0 l/m 0 min 0 min 0 W/m 0,0 km/h (0 Bft) 97,87 %
11.08.2018 22:00 17,3 C 15,0 C 15,0 C 68 % 1019,4 hPa 0,0 l/m 0 min 0 min 0 W/m 0,0 km/h (0 Bft) 100,00 %
11.08.2018 22:02 17,2 C 15,0 C 15,0 C 68 % 1019,4 hPa 0,0 l/m 0 min 0 min 0 W/m 0,0 km/h (0 Bft) 100,00 %
11.08.2018 22:04 17,2 C 15,0 C 15,0 C 68 % 1019,4 hPa 0,0 l/m 0 min 0 min 0 W/m 0,0 km/h (0 Bft) 100,00 %
11.08.2018 22:06 17,1 C 15,0 C 15,0 C 69 % 1019,3 hPa 0,0 l/m 0 min 0 min 0 W/m 0,0 km/h (0 Bft) 100,00 %
11.08.2018 22:08 17,0 C 15,0 C 15,0 C 69 % 1019,4 hPa 0,0 l/m 0 min 0 min 0 W/m 0,0 km/h (0 Bft) 100,00 %
11.08.2018 22:10 17,0 C 15,0 C 14,4 C 69 % 1019,4 hPa 0,0 l/m 0 min 0 min 0 W/m 0,0 km/h (0 Bft) 100,00 %
11.08.2018 22:12 16,9 C 15,0 C 14,4 C 69 % 1019,3 hPa 0,0 l/m 0 min 0 min 0 W/m 0,0 km/h (0 Bft) 100,00 %
11.08.2018 22:14 16,9 C 15,0 C 14,4 C 69 % 1019,4 hPa 0,0 l/m 0 min 0 min 0 W/m 0,0 km/h (0 Bft) 100,00 %
11.08.2018 22:16 16,8 C 14,4 C 14,4 C 69 % 1019,4 hPa 0,0 l/m 0 min 0 min 0 W/m 0,0 km/h (0 Bft) 100,00 %
11.08.2018 22:18 16,7 C 14,4 C 14,4 C 70 % 1019,4 hPa 0,0 l/m 0 min 0 min 0 W/m 0,0 km/h (0 Bft) 100,00 %
11.08.2018 22:20 16,7 C 14,4 C 14,4 C 70 % 1019,4 hPa 0,0 l/m 0 min 0 min 0 W/m 0,0 km/h (0 Bft) 100,00 %
11.08.2018 22:22 16,6 C 14,4 C 14,4 C 70 % 1019,3 hPa 0,0 l/m 0 min 0 min 0 W/m 0,0 km/h (0 Bft) 97,87 %
11.08.2018 22:24 16,6 C 14,4 C 14,4 C 70 % 1019,3 hPa 0,0 l/m 0 min 0 min 0 W/m 0,0 km/h (0 Bft) 100,00 %
11.08.2018 22:26 16,5 C 14,4 C 14,4 C 71 % 1019,3 hPa 0,0 l/m 0 min 0 min 0 W/m 0,0 km/h (0 Bft) 100,00 %
11.08.2018 22:28 16,5 C 14,4 C 14,4 C 71 % 1019,4 hPa 0,0 l/m 0 min 0 min 0 W/m 0,0 km/h (0 Bft) 97,83 %
11.08.2018 22:30 16,4 C 14,4 C 14,4 C 71 % 1019,5 hPa 0,0 l/m 0 min 0 min 0 W/m 0,0 km/h (0 Bft) 97,87 %
11.08.2018 22:32 16,4 C 14,4 C 14,4 C 72 % 1019,4 hPa 0,0 l/m 0 min 0 min 0 W/m 0,0 km/h (0 Bft) 100,00 %
11.08.2018 22:34 16,3 C 14,4 C 14,4 C 72 % 1019,4 hPa 0,0 l/m 0 min 0 min 0 W/m 0,0 km/h (0 Bft) 95,74 %
11.08.2018 22:36 16,3 C 13,9 C 14,4 C 73 % 1019,5 hPa 0,0 l/m 0 min 0 min 0 W/m 0,0 km/h (0 Bft) 100,00 %
11.08.2018 22:38 16,2 C 14,4 C 14,4 C 73 % 1019,4 hPa 0,0 l/m 0 min 0 min 0 W/m 0,0 km/h (0 Bft) 97,87 %
11.08.2018 22:40 16,2 C 14,4 C 14,4 C 73 % 1019,4 hPa 0,0 l/m 0 min 0 min 0 W/m 0,0 km/h (0 Bft) 100,00 %
11.08.2018 22:42 16,1 C 14,4 C 14,4 C 73 % 1019,4 hPa 0,0 l/m 0 min 0 min 0 W/m 0,0 km/h (0 Bft) 97,87 %
11.08.2018 22:44 16,1 C 14,4 C 13,9 C 73 % 1019,3 hPa 0,0 l/m 0 min 0 min 0 W/m 0,0 km/h (0 Bft) 97,87 %
11.08.2018 22:46 16,1 C 14,4 C 14,4 C 72 % 1019,3 hPa 0,0 l/m 0 min 0 min 0 W/m 0,0 km/h (0 Bft) 97,87 %
11.08.2018 22:48 16,0 C 14,4 C 13,9 C 72 % 1019,4 hPa 0,0 l/m 0 min 0 min 0 W/m 0,0 km/h (0 Bft) 97,87 %
11.08.2018 22:50 15,9 C 14,4 C 13,9 C 72 % 1019,4 hPa 0,0 l/m 0 min 0 min 0 W/m 0,0 km/h (0 Bft) 97,87 %
11.08.2018 22:52 15,9 C 14,4 C 13,9 C 72 % 1019,3 hPa 0,0 l/m 0 min 0 min 0 W/m 0,0 km/h (0 Bft) 97,83 %
11.08.2018 22:54 15,9 C 14,4 C 13,9 C 72 % 1019,3 hPa 0,0 l/m 0 min 0 min 0 W/m 0,0 km/h (0 Bft) 97,87 %
11.08.2018 22:56 15,8 C 14,4 C 13,9 C 72 % 1019,4 hPa 0,0 l/m 0 min 0 min 0 W/m 0,0 km/h (0 Bft) 97,87 %
11.08.2018 22:58 15,8 C 14,4 C 13,9 C 72 % 1019,4 hPa 0,0 l/m 0 min 0 min 0 W/m 0,0 km/h (0 Bft) 97,87 %
11.08.2018 23:00 15,8 C 14,4 C 13,9 C 73 % 1019,4 hPa 0,0 l/m 0 min 0 min 0 W/m 0,0 km/h (0 Bft) 97,87 %
11.08.2018 23:02 15,7 C 14,4 C 13,9 C 73 % 1019,4 hPa 0,0 l/m 0 min 0 min 0 W/m 0,0 km/h (0 Bft) 97,87 %
11.08.2018 23:04 15,7 C 13,9 C 13,9 C 73 % 1019,4 hPa 0,0 l/m 0 min 0 min 0 W/m 0,0 km/h (0 Bft) 97,83 %
11.08.2018 23:06 15,7 C 13,9 C 13,9 C 73 % 1019,4 hPa 0,0 l/m 0 min 0 min 0 W/m 0,0 km/h (0 Bft) 95,74 %
11.08.2018 23:08 15,6 C 13,9 C 13,9 C 73 % 1019,5 hPa 0,0 l/m 0 min 0 min 0 W/m 0,0 km/h (0 Bft) 95,74 %
11.08.2018 23:10 15,6 C 13,9 C 13,9 C 74 % 1019,4 hPa 0,0 l/m 0 min 0 min 0 W/m 0,0 km/h (0 Bft) 97,87 %
11.08.2018 23:12 15,6 C 13,9 C 13,9 C 74 % 1019,4 hPa 0,0 l/m 0 min 0 min 0 W/m 0,0 km/h (0 Bft) 97,87 %
11.08.2018 23:14 15,5 C 13,9 C 13,9 C 74 % 1019,4 hPa 0,0 l/m 0 min 0 min 0 W/m 0,0 km/h (0 Bft) 100,00 %
11.08.2018 23:16 15,4 C 13,9 C 13,9 C 74 % 1019,4 hPa 0,0 l/m 0 min 0 min 0 W/m 0,0 km/h (0 Bft) 97,83 %
11.08.2018 23:18 15,4 C 13,9 C 13,9 C 75 % 1019,4 hPa 0,0 l/m 0 min 0 min 0 W/m 0,0 km/h (0 Bft) 97,87 %
11.08.2018 23:20 15,4 C 13,9 C 13,9 C 75 % 1019,3 hPa 0,0 l/m 0 min 0 min 0 W/m 0,0 km/h (0 Bft) 97,87 %
11.08.2018 23:22 15,3 C 13,9 C 13,3 C 75 % 1019,2 hPa 0,0 l/m 0 min 0 min 0 W/m 0,0 km/h (0 Bft) 95,74 %
11.08.2018 23:24 15,3 C 13,3 C 13,3 C 75 % 1019,3 hPa 0,0 l/m 0 min 0 min 0 W/m 0,0 km/h (0 Bft) 97,87 %
11.08.2018 23:26 15,3 C 13,3 C 13,3 C 76 % 1019,3 hPa 0,0 l/m 0 min 0 min 0 W/m 0,0 km/h (0 Bft) 97,87 %
11.08.2018 23:28 15,2 C 13,3 C 13,3 C 76 % 1019,3 hPa 0,0 l/m 0 min 0 min 0 W/m 0,0 km/h (0 Bft) 97,83 %
11.08.2018 23:30 15,2 C 13,3 C 13,3 C 76 % 1019,2 hPa 0,0 l/m 0 min 0 min 0 W/m 0,0 km/h (0 Bft) 97,87 %
11.08.2018 23:32 15,2 C 13,3 C 13,3 C 76 % 1019,2 hPa 0,0 l/m 0 min 0 min 0 W/m 0,0 km/h (0 Bft) 95,74 %
11.08.2018 23:34 15,1 C 13,3 C 13,3 C 77 % 1019,2 hPa 0,0 l/m 0 min 0 min 0 W/m 0,0 km/h (0 Bft) 97,87 %
11.08.2018 23:36 15,1 C 13,3 C 13,3 C 77 % 1019,3 hPa 0,0 l/m 0 min 0 min 0 W/m 0,0 km/h (0 Bft) 97,87 %
11.08.2018 23:38 15,0 C 13,3 C 13,3 C 77 % 1019,1 hPa 0,0 l/m 0 min 0 min 0 W/m 0,0 km/h (0 Bft) 97,87 %
11.08.2018 23:40 15,0 C 13,3 C 13,3 C 77 % 1019,1 hPa 0,0 l/m 0 min 0 min 0 W/m 0,0 km/h (0 Bft) 97,83 %
11.08.2018 23:42 14,9 C 13,3 C 13,3 C 77 % 1019,1 hPa 0,0 l/m 0 min 0 min 0 W/m 0,0 km/h (0 Bft) 95,74 %
11.08.2018 23:44 14,9 C 13,3 C 13,3 C 78 % 1019,2 hPa 0,0 l/m 0 min 0 min 0 W/m 0,0 km/h (0 Bft) 95,74 %
11.08.2018 23:46 14,9 C 13,3 C 13,3 C 78 % 1019,1 hPa 0,0 l/m 0 min 0 min 0 W/m 0,0 km/h (0 Bft) 93,62 %
11.08.2018 23:48 14,8 C 13,3 C 13,3 C 78 % 1019,1 hPa 0,0 l/m 0 min 0 min 0 W/m 0,0 km/h (0 Bft) 93,62 %
11.08.2018 23:50 14,8 C 13,3 C 13,3 C 78 % 1019,1 hPa 0,0 l/m 0 min 0 min 0 W/m 0,0 km/h (0 Bft) 93,62 %
11.08.2018 23:52 14,8 C 13,3 C 13,3 C 78 % 1019,1 hPa 0,0 l/m 0 min 0 min 0 W/m 0,0 km/h (0 Bft) 95,65 %
11.08.2018 23:54 14,7 C 13,3 C 13,3 C 78 % 1019,1 hPa 0,0 l/m 0 min 0 min 0 W/m 0,0 km/h (0 Bft) 95,74 %
11.08.2018 23:56 14,7 C 13,3 C 13,3 C 78 % 1019,2 hPa 0,0 l/m 0 min 0 min 0 W/m 0,0 km/h (0 Bft) 95,74 %
11.08.2018 23:58 14,7 C 13,3 C 13,3 C 79 % 1019,1 hPa 0,0 l/m 0 min 0 min 0 W/m 0,0 km/h (0 Bft) 96,00 %
_ Min-Zeit 05:48 04:28 04:48 17:14 01:42 - - - - 03:28 20:32
Minimum _ 13,2 C 12,2 C 12,2 C 46 % 1017,1 hPa - - - - 0,0 km/h (0 Bft) 88,57 %
_ Max-Zeit 16:54 13:08 16:48 07:26 11:42 02:58 12:08 02:36 13:36 02:56 00:04
Maximum _ 23,3 C 28,9 C 21,7 C 96 % 1021,0 hPa 0,4 l/m 4 min 2 min 968 W/m 24,8 km/h
N-NW (4 Bft)
100,00 %
Durchschnitt _ 18,1 C 18,0 C 16,6 C 70 % 1019,5 hPa #2,0 l/m #6:24 h #1:14 h 346 W/m 5,7 km/h (1 Bft) 97,57 %
© 2018 W. Hausmann